GFSSE_850_temp_057.txt.gz
Temp
15 16 17 17 17 17 17 18 18 17 17 17 16 16 16 16 16 16 16 16 15 14 14 14 15 14 15 14 14 13 14 14 14 13 11 11 11 12 12 12 12 12 12
16 16 16 17 16 16 16 16 17 17 17 17 16 16 16 16 16 16 16 15 15 15 14 14 14 14 13 13 13 13 14 14 13 13 13 11 11 11 11 11 11 10 11
14 15 16 17 17 16 15 16 17 17 17 16 15 15 15 16 16 16 16 16 15 15 14 14 14 13 13 13 13 13 13 13 14 14 13 13 11 11 11 10 10 10 10
15 15 16 17 18 18 15 13 16 16 16 15 15 15 15 16 16 16 16 15 15 14 14 14 14 13 13 13 13 13 13 13 13 13 13 13 12 9 10 11 10 10 9
15 16 16 17 17 18 14 13 15 16 16 14 15 15 15 15 15 15 15 15 14 13 13 13 13 13 13 13 13 13 13 13 13 14 13 13 12 10 10 10 9 9 8
16 15 16 16 17 15 13 13 13 15 16 14 14 15 15 15 15 15 15 15 14 13 12 12 13 12 13 12 12 13 13 13 13 13 13 13 12 10 11 11 11 10 11
15 14 15 15 15 14 13 14 14 14 15 14 14 14 15 15 15 15 15 14 13 12 12 12 12 12 12 12 12 12 12 12 13 13 13 13 12 11 12 12 12 11 10
14 13 14 14 13 13 12 12 10 12 15 14 13 14 14 14 15 15 14 14 13 12 12 12 13 12 12 12 12 12 12 12 12 12 12 13 12 12 11 12 11 11 11
14 14 13 13 12 12 11 11 10 11 15 13 13 13 14 14 14 14 14 13 13 12 12 12 12 12 12 12 12 12 12 12 12 12 12 12 12 11 11 11 11 11 10
13 14 13 13 12 12 11 11 12 12 13 13 13 13 14 14 14 14 14 14 13 12 12 12 12 12 12 12 12 12 12 12 12 12 12 12 12 11 11 11 11 10 10
14 14 13 12 12 13 11 12 11 11 12 13 13 13 13 13 14 14 13 13 13 13 12 12 12 12 12 12 12 12 12 12 12 12 12 12 12 12 11 11 11 10 10
12 12 12 12 11 11 11 11 11 12 12 12 12 13 13 13 13 13 13 13 13 13 13 12 12 12 12 12 12 12 12 12 12 12 12 12 12 11 11 11 10 9 8
11 12 12 12 12 13 11 10 10 10 11 12 13 13 13 13 13 13 12 13 13 13 13 12 12 12 12 12 12 12 12 12 12 12 12 12 11 11 11 8 8 7 6
12 12 12 12 12 11 12 11 12 11 11 12 13 13 13 13 13 13 13 13 13 12 13 13 12 12 12 12 12 12 12 12 12 12 12 11 11 10 9 8 6 6 7
11 11 11 12 11 11 11 11 12 12 13 13 12 13 13 13 13 13 13 12 13 12 13 12 12 12 12 11 11 11 12 12 12 11 11 11 11 10 9 7 7 6 6
11 11 11 11 10 11 11 12 12 11 12 12 13 13 13 13 14 13 13 12 12 12 13 12 12 11 11 11 11 12 12 12 12 11 11 11 10 10 9 7 7 6 6
11 10 11 11 10 10 11 11 11 11 12 12 13 13 13 14 13 14 13 12 12 13 12 12 11 11 11 11 11 11 11 11 11 11 11 11 10 10 9 9 8 8 7
10 10 11 10 9 10 10 10 11 11 12 12 12 13 13 13 13 13 12 12 13 12 12 12 11 11 11 11 11 11 11 11 11 11 11 10 10 9 9 9 9 8 8
10 10 10 10 10 9 9 10 10 11 12 12 12 12 12 12 14 12 12 12 12 12 12 11 11 11 11 11 11 10 10 10 10 10 10 10 9 9 9 9 9 8 7
9 9 10 9 9 9 9 9 10 10 11 11 11 11 12 12 12 12 13 12 13 12 12 11 11 11 11 11 10 10 10 10 10 10 10 9 9 9 9 9 8 8 7
8 9 9 9 8 8 8 8 9 10 10 10 11 10 11 12 13 12 12 13 13 12 12 11 11 11 11 10 10 10 10 10 10 9 9 9 9 9 9 8 8 8 7
8 8 8 8 8 7 8 8 9 10 10 10 10 11 11 12 12 12 12 12 12 12 12 11 11 11 10 10 10 10 9 10 9 9 9 9 9 9 8 8 8 8 7
8 7 8 8 8 7 8 8 9 10 10 11 10 10 11 12 11 12 12 12 12 12 12 11 11 11 11 10 10 10 9 9 9 10 9 9 8 8 8 8 7 7 7
8 8 8 8 8 8 8 8 9 10 10 11 11 11 12 12 12 12 12 12 12 12 11 11 11 11 11 11 10 9 9 9 8 8 9 9 8 8 8 8 7 7 6
12 11 9 8 8 9 9 9 9 10 10 10 10 11 12 12 12 12 12 12 12 11 11 11 11 11 11 10 9 9 9 9 8 8 7 8 8 7 7 7 6 6 6
13 11 10 10 10 10 11 10 9 9 9 10 11 11 11 12 12 13 13 12 12 11 11 11 10 10 10 10 9 9 9 9 8 9 7 7 7 7 7 6 6 5 5

GFSSE_850_temp_060.txt.gz
Temp
15 16 16 17 18 16 18 17 17 18 17 16 16 16 17 16 15 15 15 15 15 14 14 14 15 14 13 14 14 14 13 11 11 11 12 12 12 12 12 12 12 12 12
16 16 16 15 16 17 17 16 17 18 17 17 16 16 16 16 15 15 15 15 14 14 14 15 15 15 14 14 14 14 14 13 12 11 10 10 11 11 11 11 12 11 12
14 14 16 17 17 17 16 17 17 17 16 16 15 16 16 16 15 15 15 15 15 15 14 14 14 14 14 14 14 14 14 14 14 13 12 11 10 11 10 10 10 11 10
15 15 16 17 17 16 16 16 17 16 15 16 15 15 15 15 15 15 15 15 15 14 13 13 14 13 14 14 14 13 13 13 13 13 13 11 10 9 10 10 9 9 9
15 16 16 16 16 16 17 17 16 16 16 17 15 15 14 14 14 14 15 15 15 14 13 13 13 13 13 13 13 13 13 13 13 13 13 12 11 10 10 9 10 11 9
15 15 15 15 15 16 15 16 17 16 17 16 16 15 14 13 13 14 14 14 14 14 13 13 13 13 12 13 13 13 13 13 13 13 14 13 12 10 10 11 11 10 11
14 15 14 15 15 15 15 15 16 15 15 15 16 14 13 13 13 14 14 14 14 13 14 13 13 13 13 12 12 13 13 13 13 13 13 13 12 11 12 12 11 11 11
16 14 14 14 15 14 14 13 13 13 14 14 15 14 13 12 13 13 13 14 14 13 13 13 13 12 12 12 12 12 12 13 13 13 12 12 12 12 11 12 11 11 11
15 15 14 13 12 12 12 12 12 12 11 15 15 14 13 12 13 13 13 13 13 13 13 13 12 12 12 12 12 12 12 12 13 13 12 12 12 12 12 12 12 11 11
14 14 13 12 12 12 12 12 12 10 13 13 14 14 13 13 13 13 12 12 12 12 13 13 12 12 12 12 12 12 12 12 12 12 12 12 12 11 11 11 11 11 11
14 14 13 12 12 12 12 12 11 12 11 12 14 13 13 13 13 12 12 12 12 12 13 12 12 12 12 12 12 12 12 12 12 12 12 12 11 11 11 11 11 10 10
14 13 12 12 11 11 11 11 11 11 11 11 13 13 13 13 13 12 12 12 12 12 12 13 12 12 12 12 12 11 12 12 12 12 12 12 11 11 11 11 10 10 9
11 11 11 11 11 11 11 10 10 10 10 10 12 13 13 12 12 12 12 12 13 13 12 12 13 12 12 12 11 11 11 12 12 12 12 11 11 11 10 10 8 8 8
11 11 10 11 11 11 10 10 10 10 10 10 12 13 13 12 12 12 13 13 13 13 12 13 12 12 12 12 11 11 11 12 12 12 12 11 11 11 9 9 6 6 7
11 11 11 11 12 11 10 10 10 10 10 11 11 12 13 13 12 12 12 12 13 12 13 12 12 12 12 12 12 11 11 12 11 11 11 11 10 10 9 7 6 6 6
11 11 11 11 11 10 10 10 10 10 11 11 10 11 12 13 13 12 12 12 12 12 12 12 12 12 12 11 11 11 11 11 11 11 11 10 10 10 9 8 7 6 6
11 11 11 11 11 11 10 10 10 11 11 11 12 11 13 13 13 12 13 12 12 12 12 12 12 11 11 11 11 11 11 11 11 11 10 10 10 10 9 9 8 7 6
10 11 10 10 10 10 10 10 9 10 11 12 12 12 13 13 12 13 13 13 12 12 12 12 12 11 11 11 11 11 11 11 11 10 10 10 10 10 9 9 8 8 7
10 10 10 10 10 10 9 9 9 11 11 12 12 12 13 12 12 12 13 13 12 12 12 12 12 11 11 11 11 11 10 10 10 10 10 10 10 10 9 9 9 8 8
9 10 10 10 10 10 10 9 9 11 11 11 12 12 12 12 12 12 12 12 12 12 12 12 12 12 11 11 10 10 10 10 10 10 10 10 10 10 9 9 8 8 8
9 9 9 10 10 9 9 9 10 10 11 11 12 12 12 11 12 11 12 14 12 12 12 12 12 11 11 11 10 10 10 10 10 10 10 10 10 10 9 9 8 8 8
9 9 9 9 9 9 9 9 9 10 10 11 11 11 11 12 11 12 12 13 12 12 12 13 12 12 11 10 10 10 9 10 10 10 10 10 9 9 9 8 8 8 7
8 8 8 8 9 9 8 9 9 9 10 10 10 11 11 11 10 11 12 11 12 11 12 12 12 12 11 11 10 10 9 10 10 10 10 10 9 9 9 9 8 8 7
9 8 8 8 8 8 8 9 9 9 9 10 10 11 11 11 10 11 11 11 12 12 12 12 12 11 11 10 10 10 9 9 9 9 10 9 9 8 8 8 8 8 7
11 9 8 8 8 8 8 8 9 9 9 9 10 11 11 11 11 11 11 11 12 12 12 12 11 11 11 10 10 10 9 9 9 8 8 9 8 8 8 7 8 7 7
12 11 9 8 8 8 8 9 8 9 10 10 10 10 10 11 11 11 11 12 12 12 12 12 11 11 11 11 10 10 9 9 9 8 8 9 8 7 7 7 7 7 6

GFSSE_850_temp_063.txt.gz
Temp
16 16 16 17 18 19 18 18 17 17 17 17 17 17 16 16 16 16 16 15 15 15 14 14 13 12 12 13 12 12 12 12 13 13 12 12 12 12 13 12 12 12 12
16 16 16 17 18 17 18 18 17 18 18 17 17 17 16 16 16 16 15 14 14 14 14 14 13 13 13 13 12 12 13 12 12 12 12 11 11 12 12 12 12 12 12
15 16 16 15 15 17 18 17 17 17 17 16 16 18 16 15 15 15 15 14 14 14 15 14 12 12 12 14 14 14 13 14 13 12 10 10 10 12 12 12 12 12 12
15 15 15 15 15 16 17 17 17 16 17 16 16 16 16 15 15 14 14 14 14 15 15 14 14 13 14 14 14 14 14 14 14 12 10 10 10 12 11 12 11 11 11
15 15 15 16 15 16 17 17 17 17 17 16 16 16 16 15 14 14 14 14 14 14 13 13 14 14 14 14 14 14 13 13 13 12 10 11 10 8 10 11 10 11 11
14 15 15 14 15 16 16 16 17 17 16 16 16 15 15 14 14 14 14 12 12 11 12 14 14 14 13 13 13 13 13 13 13 12 11 10 8 8 9 9 11 10 11
14 14 14 14 15 15 16 16 16 16 15 15 15 15 15 14 15 14 12 12 12 13 14 13 13 13 13 13 13 13 13 13 13 13 10 9 9 8 8 10 11 11 11
13 14 13 13 14 14 15 14 15 15 15 15 15 15 15 14 14 12 11 13 13 13 13 13 13 13 13 13 13 13 13 13 13 12 9 8 8 9 7 10 11 11 11
14 13 13 13 14 13 12 13 13 14 14 14 15 14 15 14 13 11 12 13 13 13 13 13 12 12 12 12 12 12 12 13 13 13 9 8 11 11 11 11 11 11 11
12 14 13 13 14 13 13 13 13 12 13 13 14 13 14 14 13 12 12 12 12 12 13 12 12 12 12 12 12 12 12 12 12 12 9 11 11 11 11 11 11 11 11
13 13 12 13 13 13 13 12 12 12 12 13 13 13 13 13 13 12 12 12 12 12 12 12 12 12 12 12 12 12 12 12 12 12 10 11 11 11 10 11 11 11 10
13 13 13 12 12 12 11 12 12 11 12 11 12 12 12 13 13 12 12 12 13 12 12 12 12 12 12 12 12 12 12 12 12 11 11 11 9 9 10 10 10 10 9
12 12 13 11 12 11 11 10 11 10 10 10 11 13 12 12 12 12 12 12 12 12 12 12 12 12 12 12 12 12 12 12 11 11 10 10 9 8 9 10 10 10 9
11 11 11 11 12 11 10 10 11 10 9 10 11 13 12 12 12 12 12 12 12 12 12 12 12 12 12 12 12 12 12 12 11 11 11 10 9 9 7 9 9 8 6
11 10 10 10 10 10 10 11 10 10 9 9 10 12 12 12 12 12 12 12 12 12 12 12 12 12 12 12 12 12 12 12 11 11 10 10 9 8 8 8 7 6 5
11 11 11 11 10 10 10 10 9 9 10 10 10 12 12 13 12 13 13 12 12 12 12 12 12 12 12 12 11 11 11 11 11 11 11 10 10 9 9 7 7 7 6
11 10 10 11 11 10 9 9 9 9 9 10 11 12 12 12 12 12 13 12 12 12 12 11 12 11 11 11 11 11 11 11 11 11 10 10 10 10 10 9 8 7 7
10 11 10 11 10 10 9 9 9 9 9 10 10 11 12 12 12 12 12 12 12 13 11 11 11 12 12 11 11 11 11 11 11 11 10 10 10 10 10 10 9 8 7
10 10 10 10 10 10 10 9 9 9 10 10 10 11 12 12 12 12 12 11 12 12 12 11 12 12 12 11 11 11 10 10 10 10 10 10 10 9 9 9 9 9 8
10 10 10 9 10 10 9 9 9 9 10 10 10 11 12 12 12 12 11 12 12 12 12 11 11 12 11 11 11 11 10 10 10 10 10 10 10 9 9 9 9 8 8
9 10 9 10 10 10 9 8 9 10 10 10 10 11 11 12 11 11 12 11 11 12 12 12 12 12 12 11 10 10 10 10 10 10 10 10 10 10 9 9 9 8 8
9 9 10 10 10 9 9 9 9 9 10 11 11 11 12 11 11 11 11 12 12 12 13 12 12 12 11 11 11 10 9 10 10 10 10 10 10 10 9 9 9 8 8
9 9 9 9 9 10 9 9 9 9 10 10 11 11 11 11 11 11 11 12 11 12 12 12 12 11 12 12 11 10 10 10 11 11 11 11 10 10 9 9 9 8 8
8 9 9 9 9 9 9 9 9 9 10 10 11 10 11 11 11 11 11 11 10 11 12 12 12 11 11 11 11 10 10 10 10 10 10 10 9 9 9 8 8 8 8
8 8 8 9 9 9 9 9 9 10 10 10 11 11 11 11 10 11 12 11 10 12 11 12 11 11 11 11 11 10 10 10 10 9 8 8 9 8 8 8 8 8 7
12 9 8 8 8 8 8 9 9 10 10 10 10 11 10 11 11 11 11 10 10 11 11 11 11 11 11 11 11 10 9 9 10 9 8 8 8 8 8 8 7 7 7

GFSSE_850_temp_069.txt.gz
Temp
20 20 19 17 18 18 18 19 18 18 18 18 17 17 17 16 17 17 16 16 15 14 14 14 14 14 14 14 14 14 14 14 14 13 13 13 13 13 13 13 13 13 13
19 18 18 18 17 17 17 18 18 18 17 17 17 17 16 16 16 17 16 15 14 14 14 14 14 14 14 14 14 14 13 13 13 13 13 13 13 13 12 13 12 12 12
18 16 17 17 17 16 16 17 17 17 17 17 16 16 15 15 15 15 16 14 14 14 14 14 14 14 14 14 13 13 13 13 13 13 12 11 12 13 12 12 12 13 13
17 16 16 17 17 16 16 16 16 16 16 17 16 16 16 14 14 14 15 14 14 15 14 14 13 14 14 13 13 13 13 13 13 13 13 11 11 12 12 12 13 13 13
15 15 15 17 16 16 15 16 16 16 16 16 16 16 16 15 14 14 14 15 14 14 15 13 13 14 13 13 13 13 13 13 13 14 13 11 10 11 12 12 12 12 12
15 15 15 16 15 15 16 15 15 15 16 16 16 16 16 15 14 14 14 14 15 14 14 13 14 14 13 12 13 12 13 13 13 13 11 10 9 12 13 13 13 13 13
15 15 15 15 15 15 14 15 14 15 16 15 16 16 15 15 14 14 13 14 15 15 15 14 14 13 13 13 13 12 12 13 13 12 11 9 10 13 13 13 13 13 13
15 15 14 14 15 14 13 13 14 14 15 15 16 16 16 15 14 13 13 14 15 15 14 14 14 13 13 13 13 12 12 13 13 12 10 9 13 13 13 12 12 12 12
16 15 15 14 14 14 14 14 12 13 15 14 15 15 15 14 14 13 13 14 14 14 14 14 14 14 13 13 12 12 12 13 13 11 10 9 11 11 11 11 12 12 12
14 16 15 14 14 14 15 14 13 13 14 15 14 15 14 13 14 13 13 12 14 14 14 14 13 13 13 13 12 12 12 12 12 12 10 11 12 10 10 11 11 11 11
13 14 14 14 13 13 13 14 13 12 12 13 14 13 13 13 13 13 12 12 13 14 14 13 13 13 12 12 12 12 12 13 12 11 9 11 11 11 11 11 11 11 11
13 13 13 14 13 13 13 13 13 12 12 12 12 13 13 12 12 12 12 12 13 13 13 13 13 12 12 11 11 12 12 12 12 10 10 11 10 10 10 11 11 10 10
12 13 13 13 13 13 13 13 12 13 12 12 12 12 13 12 11 12 12 12 12 12 12 12 12 11 10 10 11 12 11 12 12 10 11 10 9 9 10 11 10 10 10
13 12 12 13 13 13 12 12 12 13 12 12 10 10 11 11 11 11 12 12 12 12 12 12 11 12 11 11 11 11 12 12 11 9 11 10 9 9 10 10 10 10 9
12 11 13 13 13 13 12 12 12 11 11 11 11 10 10 9 10 12 11 11 11 11 11 10 12 11 11 11 11 11 11 12 11 10 10 11 9 9 8 8 9 9 9
12 12 13 13 13 12 11 11 11 11 11 10 11 10 10 9 11 11 11 11 11 12 11 12 12 11 11 11 11 11 11 11 11 10 9 10 10 8 8 8 8 8 9
11 11 11 11 11 11 10 10 11 10 10 9 10 9 9 10 11 11 11 12 12 12 12 12 11 12 12 11 11 11 11 11 11 11 9 9 10 9 8 8 8 8 8
11 11 10 10 10 10 10 10 10 10 10 9 9 9 9 11 12 11 11 11 12 12 12 12 12 12 12 12 11 11 11 10 10 10 10 9 9 8 10 8 8 8 8
11 11 10 10 10 10 10 10 10 10 9 8 9 9 9 11 11 12 11 11 11 11 12 12 12 12 12 12 12 11 11 10 10 10 10 10 9 9 9 10 9 9 8
11 11 10 11 10 10 10 10 9 9 9 9 9 9 10 10 10 11 10 11 11 11 11 11 11 11 12 12 12 11 10 10 10 10 10 10 10 10 9 9 9 9 9
11 10 10 10 10 10 9 9 9 9 9 8 8 10 10 10 9 11 12 12 11 10 10 11 11 11 11 11 11 11 10 10 10 10 10 10 9 10 10 10 8 9 9
10 11 10 10 10 10 10 9 9 9 9 9 9 9 10 10 10 12 11 11 12 11 10 10 10 10 10 10 11 11 11 10 10 11 10 10 10 9 9 10 10 9 8
9 10 10 10 10 10 10 9 9 9 8 8 9 9 10 9 10 11 11 12 11 11 10 10 10 10 11 11 11 11 11 12 12 11 11 11 10 10 9 9 9 10 9
9 10 10 10 10 9 9 9 9 9 9 9 10 10 10 10 12 12 11 11 11 10 10 10 11 11 11 10 11 11 12 11 12 12 11 11 10 9 11 10 9 10 9
10 10 10 10 10 10 9 9 9 10 9 9 9 10 9 9 10 11 11 11 11 10 11 11 11 11 11 10 11 11 10 11 11 11 12 11 10 9 9 10 10 10 9
12 9 10 10 10 10 10 9 10 10 9 9 9 9 9 10 10 10 11 11 11 10 11 11 10 10 10 11 10 10 11 11 11 11 11 11 10 10 9 9 9 9 9

GFSSE_850_temp_072.txt.gz
Temp
21 21 20 20 19 18 18 18 19 19 18 18 18 18 18 17 17 17 17 17 17 16 15 15 15 14 14 14 14 15 15 15 14 14 14 13 13 13 13 13 13 13 13
19 20 19 19 19 18 18 18 17 18 18 18 18 17 17 17 16 16 17 17 15 14 14 14 14 14 14 14 14 15 15 14 14 13 13 12 13 13 12 14 13 12 12
18 19 18 18 19 18 16 16 17 17 17 17 18 17 17 16 16 15 15 16 15 14 14 13 13 14 14 14 14 14 13 13 13 13 12 12 12 12 13 13 13 13 13
18 17 18 18 18 18 17 17 16 16 16 16 17 17 17 16 15 14 14 14 15 14 13 13 13 14 14 14 13 13 13 13 13 13 12 11 11 12 12 13 13 13 12
18 17 16 17 17 17 16 15 15 16 16 16 16 16 16 16 15 14 13 13 14 14 12 12 14 13 13 13 13 13 13 13 13 12 12 11 11 11 12 12 12 13 12
17 16 16 16 16 17 16 15 15 15 16 16 16 16 15 15 15 14 13 13 13 13 11 13 14 13 13 13 13 13 13 13 12 12 11 11 10 10 13 13 12 13 12
17 16 16 16 16 16 15 15 14 15 15 16 15 15 15 15 15 14 13 12 13 14 14 15 14 13 13 13 13 13 13 13 13 11 11 11 10 11 12 13 13 13 13
17 16 16 15 15 15 15 14 14 13 13 14 14 15 14 15 14 15 13 12 12 14 15 15 14 14 13 13 13 13 13 12 12 11 11 12 11 11 12 13 13 13 12
17 15 15 15 16 15 14 13 13 13 12 12 14 15 14 14 14 14 13 13 13 14 14 15 14 13 13 12 13 13 13 12 11 11 11 11 11 11 12 13 13 13 13
15 16 15 15 14 14 14 15 13 13 13 12 12 15 14 14 14 13 14 14 13 14 14 14 14 14 13 13 13 13 13 12 11 10 11 11 11 12 13 13 13 12 12
14 14 14 14 14 13 13 12 12 13 13 11 13 15 13 14 13 12 13 14 13 14 14 14 14 13 13 12 12 12 13 12 11 11 11 10 10 12 12 12 12 12 12
14 14 14 14 14 13 13 12 13 12 14 11 13 13 13 13 13 12 12 13 13 13 13 14 13 13 13 12 12 13 13 12 12 11 12 11 11 12 12 11 11 11 11
14 13 14 13 14 13 13 12 12 12 12 12 12 12 13 13 12 12 12 13 13 13 13 13 12 12 12 12 12 12 12 12 11 11 11 11 10 10 11 11 11 11 11
13 13 13 13 13 13 13 13 13 12 12 12 11 12 13 12 12 12 12 12 13 13 13 13 12 12 12 12 11 12 12 12 11 11 11 10 9 10 10 11 11 10 11
13 12 12 13 13 13 13 13 13 12 12 12 11 12 12 12 11 10 11 12 12 12 13 12 11 11 12 11 11 12 12 12 11 12 11 11 10 9 9 10 11 10 10
13 12 13 13 13 13 13 12 12 12 13 12 11 11 12 12 12 10 11 12 11 12 12 12 11 11 11 11 11 11 12 12 11 11 11 11 11 10 10 10 11 10 10
13 12 13 12 12 12 11 11 12 12 12 12 12 11 11 12 11 10 11 12 11 12 12 12 12 11 11 11 11 11 11 11 11 11 11 11 11 10 10 9 10 10 10
11 11 12 12 11 10 10 11 11 11 11 11 11 11 11 11 10 10 11 12 11 12 12 12 12 11 11 11 11 11 11 11 11 11 11 11 11 11 10 9 9 9 9
12 11 11 11 11 10 10 10 10 10 11 11 11 11 10 10 10 10 12 11 12 12 12 12 12 12 12 12 11 11 11 10 10 10 10 10 10 10 10 10 10 9 9
11 11 10 11 10 10 9 10 10 10 10 10 10 10 10 9 9 11 10 11 11 11 12 12 12 12 12 12 12 11 11 10 11 11 10 10 9 9 10 10 10 10 10
11 11 10 11 10 10 10 10 9 10 9 9 10 9 9 9 9 11 11 12 12 12 12 12 12 12 12 12 12 11 11 11 10 10 10 11 10 11 10 9 10 10 10
10 10 11 11 11 10 10 10 9 10 9 9 9 9 9 9 10 10 11 11 11 11 11 11 11 11 11 11 12 11 10 10 10 10 10 10 11 11 10 10 10 10 10
10 10 10 10 11 10 10 10 9 9 9 9 9 9 9 10 10 10 11 11 11 12 11 11 11 11 11 11 11 11 10 10 11 11 10 10 10 10 11 11 11 10 9
10 10 11 11 11 10 9 9 10 9 9 9 9 9 9 10 11 11 10 11 12 12 12 12 12 11 11 11 11 11 11 12 11 10 10 10 10 10 10 9 9 10 10
11 11 10 10 11 10 9 9 9 9 9 9 9 9 10 10 10 10 10 11 12 12 12 12 12 11 11 10 11 10 11 11 11 11 11 11 11 10 10 10 10 10 11
12 10 10 10 10 10 9 9 10 10 9 9 9 9 9 9 10 10 10 10 12 12 12 12 11 10 11 10 11 10 11 11 11 11 11 12 11 11 10 10 10 11 11

GFSSE_850_temp_075.txt.gz
Temp
20 20 19 19 20 20 19 19 19 19 19 18 18 18 18 18 17 17 17 17 17 17 17 16 14 14 14 14 14 15 15 15 15 15 14 14 13 13 14 14 14 13 13
21 20 19 19 19 20 19 19 18 18 18 18 18 18 17 17 17 17 17 17 17 17 16 14 14 14 14 14 14 15 15 15 15 13 13 13 13 13 13 12 13 13 12
20 20 20 19 19 19 19 18 18 17 17 18 17 17 17 17 17 16 16 16 16 15 14 14 13 14 14 14 14 14 14 14 13 13 12 12 12 11 12 12 12 12 11
20 20 19 19 18 19 19 18 17 17 17 17 17 17 17 17 17 16 16 15 14 14 14 13 14 14 14 14 14 14 13 13 13 12 12 11 11 11 12 12 12 12 12
19 19 19 18 18 18 18 17 17 16 17 17 16 17 17 16 16 16 15 14 14 14 13 14 13 13 13 13 13 13 12 12 12 12 11 11 12 11 12 12 12 12 13
20 19 19 17 17 17 17 17 17 17 16 17 16 16 16 16 15 15 14 14 13 13 12 14 14 13 13 13 12 12 11 11 12 12 11 11 11 11 13 13 13 13 13
20 18 17 16 16 16 16 15 15 16 14 16 16 16 16 16 14 14 14 14 13 13 14 14 13 13 13 13 12 12 11 11 12 12 13 11 10 13 13 13 13 13 13
19 17 16 15 15 15 15 15 15 14 13 13 12 13 15 15 14 14 14 13 13 13 14 14 13 13 13 13 12 12 12 12 12 12 12 11 11 11 13 13 13 13 13
18 17 16 15 15 15 15 15 15 15 14 14 13 12 12 14 13 13 14 14 13 14 14 14 13 13 13 13 12 12 12 12 13 12 12 11 10 12 12 13 13 13 13
18 16 15 14 15 14 16 14 16 15 14 13 12 12 12 13 13 13 14 14 14 14 13 14 13 13 13 13 13 12 12 12 12 12 12 11 11 12 13 13 13 13 13
16 16 16 14 14 14 15 14 13 13 13 13 13 13 11 13 13 13 13 14 14 14 14 14 13 13 13 13 12 12 12 12 12 12 12 11 13 13 12 12 12 12 12
15 14 15 14 13 13 13 14 12 12 13 14 12 12 12 13 13 13 13 14 14 13 13 14 13 12 12 12 12 11 12 12 12 12 13 12 13 12 12 12 12 12 12
16 15 14 14 13 13 13 13 12 12 12 12 11 11 12 12 12 13 12 13 13 14 13 13 13 12 12 12 12 12 12 12 12 12 13 12 12 12 12 12 12 12 12
15 14 14 13 13 13 12 13 13 12 12 11 12 12 12 12 12 12 13 13 13 14 14 13 13 12 12 12 12 12 12 12 12 13 13 12 12 12 12 12 12 11 11
15 14 13 13 13 13 12 13 13 12 12 12 12 11 12 13 12 12 13 13 13 13 13 13 13 12 12 12 12 11 12 12 12 12 12 12 12 11 11 11 11 11 11
14 13 14 13 13 13 12 13 13 13 12 12 11 11 12 13 12 13 13 13 13 13 12 12 12 12 11 12 12 11 12 12 12 12 12 12 12 12 11 11 11 11 11
14 13 14 13 13 13 12 12 13 13 12 13 12 11 11 12 13 13 13 13 12 12 12 12 12 12 11 11 12 11 11 12 11 12 12 12 12 12 11 11 11 11 10
14 12 13 13 13 13 13 11 11 12 12 12 12 12 11 12 12 13 13 12 13 12 11 11 11 11 11 11 11 11 11 11 11 11 11 11 12 12 12 11 11 11 10
13 11 11 12 13 13 11 10 11 11 11 11 11 11 12 11 12 12 12 12 12 12 12 11 11 11 11 11 11 11 11 11 11 11 11 11 11 11 11 11 11 11 10
13 10 10 11 13 12 11 10 11 10 10 11 11 11 11 11 11 11 12 12 12 12 12 11 11 11 11 11 11 11 11 11 10 11 11 11 11 11 11 11 11 11 10
12 10 10 11 10 11 11 10 10 10 10 11 11 11 11 10 10 11 11 11 11 12 12 11 12 12 11 11 11 11 11 11 11 10 10 10 10 10 10 10 10 10 10
13 10 9 10 10 10 10 10 10 10 10 10 10 11 10 10 10 11 11 11 11 11 11 11 12 12 12 12 11 11 11 10 10 10 10 10 10 10 10 10 10 11 10
13 10 10 10 10 10 9 9 10 9 10 9 10 10 9 9 10 10 10 11 11 10 10 11 12 12 12 12 12 12 10 10 10 10 10 10 10 10 10 10 10 10 10
14 10 10 10 10 10 11 9 9 9 9 9 10 10 9 10 10 10 11 10 10 10 10 11 12 12 12 12 11 11 11 11 11 10 10 10 10 10 10 10 10 10 10
14 10 10 9 10 10 10 10 9 9 9 9 9 9 9 10 10 10 10 11 11 11 12 12 12 12 12 12 12 11 11 11 11 11 11 12 11 11 11 11 11 11 11
14 10 10 10 10 10 9 10 10 10 9 9 9 9 9 9 9 10 10 11 11 11 12 12 12 11 11 11 11 11 11 11 12 11 11 11 11 12 12 11 11 11 11

GFSSE_850_temp_078.txt.gz
Temp
21 21 20 19 19 20 20 20 19 19 19 19 18 17 17 17 16 16 16 16 17 16 16 16 15 15 15 15 14 14 14 14 14 14 14 14 13 13 13 13 13 13 13
21 21 20 19 19 19 19 20 19 19 19 18 18 17 17 16 16 16 16 16 16 17 16 15 14 14 14 14 14 14 14 14 14 13 13 13 13 13 13 13 13 13 13
21 21 21 20 19 19 19 19 19 18 18 18 18 17 17 16 15 16 16 16 17 16 16 15 14 14 14 14 14 14 14 14 13 13 13 13 13 13 12 12 12 11 11
21 21 20 20 19 18 18 18 19 19 18 18 17 18 17 16 16 16 16 16 16 16 16 14 14 14 14 14 14 14 14 13 13 12 12 12 11 12 11 11 11 11 12
21 21 20 20 19 18 18 18 18 18 18 17 16 17 17 16 16 16 16 16 15 15 15 13 13 13 13 13 13 13 13 13 13 12 11 11 11 11 11 12 13 13 13
21 21 20 19 18 17 17 17 17 17 18 18 17 17 17 16 16 16 16 15 14 14 13 14 14 13 13 13 13 13 12 12 12 11 11 11 11 11 12 13 13 13 13
20 20 19 18 17 17 17 16 16 16 16 15 16 15 16 16 16 16 15 14 14 13 13 13 13 13 13 13 12 12 12 12 12 12 11 11 11 11 12 13 13 13 13
19 19 18 16 16 16 16 16 15 14 14 12 13 12 12 13 15 15 15 14 14 13 13 13 12 12 12 12 12 12 12 12 12 12 11 10 10 11 12 13 13 13 13
19 19 17 15 15 15 15 15 14 16 14 12 13 14 11 12 12 13 14 14 14 13 13 12 12 12 11 12 12 12 12 12 12 12 13 10 10 12 13 13 14 13 13
19 18 17 14 15 14 15 14 15 16 15 13 13 13 12 11 13 13 13 14 13 14 13 12 12 12 12 12 12 12 12 12 13 13 13 12 12 13 14 14 13 13 13
18 16 17 16 13 14 14 14 14 15 15 13 13 13 13 12 12 13 13 13 14 13 13 12 12 12 12 12 12 12 12 12 13 13 13 12 12 12 13 13 13 13 13
18 16 16 15 15 13 13 13 14 13 12 12 13 13 12 11 12 12 13 13 13 14 13 12 12 12 12 12 12 12 12 12 13 13 13 12 11 13 13 13 12 12 12
17 16 15 14 14 13 13 14 15 12 12 12 12 11 12 11 12 12 12 12 13 13 13 12 12 12 12 12 12 12 12 12 12 13 13 13 13 13 12 12 12 12 12
17 16 15 14 13 13 13 14 14 12 12 12 13 11 12 11 12 11 12 12 13 12 13 12 12 12 11 11 12 12 12 12 12 13 12 13 13 12 12 12 12 12 12
17 16 15 14 13 13 13 13 14 13 12 12 12 11 12 12 12 11 13 13 13 13 13 13 12 12 11 11 12 12 12 12 12 13 13 12 12 13 12 12 12 12 12
17 16 15 13 13 13 12 12 14 14 12 12 11 11 10 12 12 13 14 13 13 13 13 13 12 12 12 11 12 12 12 12 12 13 12 12 12 12 12 12 12 11 11
17 16 15 13 13 13 12 12 14 14 11 11 11 11 11 12 13 13 14 14 14 13 13 12 12 12 12 11 11 11 11 11 12 12 12 12 13 12 12 12 12 12 11
17 16 15 13 13 13 13 12 12 12 12 11 11 12 12 12 13 13 14 13 13 13 13 12 11 11 12 11 11 11 11 11 11 12 12 12 12 12 12 12 11 11 11
17 16 15 13 13 13 12 11 11 12 12 11 11 11 12 12 13 14 14 13 13 13 12 12 11 12 12 11 11 11 11 11 11 11 12 12 12 12 12 12 11 11 10
16 15 14 13 12 12 10 10 11 11 11 11 11 11 11 12 13 13 13 13 13 12 12 12 11 11 12 12 11 11 11 11 11 11 11 11 11 11 11 11 11 11 11
15 14 14 12 12 12 10 10 10 11 11 11 11 12 12 11 12 12 13 13 12 12 12 11 11 11 11 11 11 10 10 10 10 10 11 10 10 10 10 10 10 10 11
15 14 13 12 12 11 10 10 11 11 11 11 11 11 12 11 11 11 12 12 12 11 11 11 11 11 11 11 11 11 10 10 10 10 10 10 10 10 10 10 10 10 10
14 14 14 11 11 11 10 10 10 10 10 10 11 10 10 10 10 11 11 12 11 12 11 11 11 11 11 11 11 11 10 10 10 10 10 10 10 10 10 10 10 10 10
14 14 13 12 11 10 9 10 10 10 10 10 11 10 10 10 10 10 10 11 11 11 11 11 11 11 12 11 11 11 11 12 10 10 10 10 10 10 11 10 10 10 10
14 14 13 10 10 10 11 10 10 10 10 10 10 10 10 9 9 10 10 11 11 11 11 11 11 11 11 11 11 11 11 12 11 11 11 11 10 10 10 10 10 11 11
14 13 13 10 10 10 10 10 10 10 10 9 9 9 9 9 9 10 10 10 10 11 11 11 10 10 12 12 12 12 11 12 11 11 11 11 11 11 11 11 11 11 11

GFSSE_850_temp_081.txt.gz
Temp
21 21 20 19 19 19 19 19 19 19 18 17 18 18 18 18 18 17 17 16 17 17 17 16 16 15 15 15 15 14 15 15 15 14 14 14 14 14 13 13 14 13 13
21 21 21 20 19 19 19 19 19 19 18 17 17 17 17 17 17 17 16 16 16 17 16 16 15 15 15 14 14 14 14 14 14 14 14 13 13 13 13 13 13 13 13
21 22 21 20 19 18 18 19 19 19 19 18 17 17 17 17 17 16 16 16 16 16 16 15 14 14 15 14 14 14 14 14 14 13 13 13 12 13 13 13 13 13 12
21 21 21 21 19 19 18 18 18 18 18 18 17 17 16 16 16 16 16 16 16 16 16 14 14 14 14 14 14 14 14 14 13 13 13 12 13 13 12 12 12 11 11
21 20 20 20 20 18 18 18 18 18 17 17 17 17 16 16 15 16 16 16 16 15 15 13 14 14 14 14 14 14 13 13 13 13 12 12 12 12 11 11 11 12 12
21 21 20 20 19 18 17 17 17 17 17 17 16 16 15 15 16 16 16 15 15 15 12 12 13 14 13 13 14 13 13 13 13 12 12 12 11 11 11 13 13 13 13
21 21 20 19 18 17 17 17 17 16 16 15 14 14 15 14 15 16 16 15 14 14 13 13 13 13 13 13 13 13 13 13 12 11 11 11 11 11 11 12 12 12 13
20 20 19 18 17 17 16 16 15 15 15 14 13 12 13 13 14 13 13 13 13 13 13 13 13 13 13 13 13 12 13 12 12 11 10 11 10 10 11 12 13 13 13
20 20 18 17 16 15 15 15 14 15 14 14 12 12 12 12 13 12 13 13 13 13 12 12 13 13 12 13 12 13 12 12 12 12 10 10 10 11 12 13 13 13 14
19 18 18 17 14 14 15 14 14 14 15 14 13 14 11 12 10 13 12 13 13 13 12 12 12 12 12 12 12 12 12 12 12 12 13 10 11 10 10 11 13 13 13
18 18 17 17 15 14 14 14 14 14 14 15 13 13 14 13 11 11 12 13 13 13 12 12 12 12 12 12 12 12 12 12 12 12 13 11 11 9 9 11 13 12 12
19 18 17 16 15 14 14 14 14 13 13 15 13 13 14 13 12 12 12 12 12 12 12 11 11 11 11 11 11 12 12 12 12 12 13 12 10 9 10 11 12 12 12
18 17 17 16 15 14 13 13 13 13 13 14 14 14 12 12 13 12 12 12 12 12 12 11 11 11 12 12 12 12 12 12 12 12 12 11 11 10 11 12 12 12 12
18 17 17 15 15 14 13 13 13 13 14 13 13 12 12 12 11 11 11 12 12 11 11 11 11 12 12 12 12 12 12 12 13 12 12 12 13 12 11 13 13 12 12
18 17 17 15 15 14 13 13 13 13 13 13 11 12 12 11 11 11 11 12 12 11 11 11 11 11 11 12 12 12 12 12 12 12 12 13 13 13 12 13 13 12 12
17 17 16 16 15 14 13 13 12 12 12 12 12 11 12 11 11 11 11 12 12 11 11 11 11 11 11 11 11 12 11 11 11 12 12 12 13 12 12 12 12 12 12
18 17 16 16 15 14 13 12 12 12 11 11 12 11 11 11 11 12 12 12 12 12 12 11 11 11 11 11 12 11 11 11 11 12 12 12 12 12 12 12 12 12 12
18 17 16 15 15 14 12 12 11 12 12 12 11 11 10 10 11 12 12 12 12 12 12 11 11 11 11 11 11 11 11 11 12 11 12 11 12 12 12 12 12 11 11
17 16 16 15 14 13 12 11 11 12 12 12 11 11 10 10 11 12 12 12 13 12 12 12 11 11 11 11 11 11 11 11 11 11 11 11 11 12 11 11 11 11 11
17 16 15 14 14 13 13 11 11 11 11 11 11 11 10 10 11 12 12 13 13 12 12 12 11 11 11 11 11 11 11 11 11 11 11 11 11 11 11 11 11 11 11
16 15 15 14 14 13 12 11 11 11 11 11 11 11 11 11 12 12 12 12 13 13 12 12 11 11 11 11 11 10 10 10 10 10 10 11 11 11 11 11 11 11 11
16 15 14 14 13 12 13 10 10 10 11 11 11 11 11 11 11 12 12 13 13 12 12 12 11 11 11 11 11 10 9 9 10 10 10 10 10 10 10 10 10 11 10
15 15 15 14 12 12 13 10 10 10 10 11 11 11 11 11 11 11 11 12 12 12 12 12 11 12 12 11 10 11 9 10 10 10 10 10 10 10 10 10 10 10 10
15 15 14 13 12 12 12 10 10 10 10 10 11 11 11 10 10 10 10 11 12 12 12 12 12 11 12 11 10 10 11 11 10 10 10 11 11 11 11 10 10 11 11
15 15 15 13 12 11 11 11 10 10 10 11 10 10 10 10 10 10 9 10 11 11 11 11 11 11 11 11 11 11 11 11 11 12 12 12 11 11 11 11 11 11 11
15 15 14 12 11 11 11 11 10 9 10 10 10 10 10 10 9 9 9 9 10 11 11 11 11 11 11 11 11 11 11 11 11 12 12 12 11 11 11 11 11 11 11

GFSSE_850_temp_084.txt.gz
Temp
21 21 21 20 20 20 19 18 18 18 18 19 18 18 18 18 18 18 17 17 17 17 17 16 16 16 15 16 15 15 15 15 15 14 14 14 14 14 14 14 14 14 14
22 22 21 20 20 19 19 18 18 18 18 18 18 18 18 18 18 17 17 17 17 17 17 16 16 15 15 15 15 15 15 15 14 14 14 14 13 13 13 14 14 13 14
22 22 22 21 20 19 18 18 18 17 18 18 18 18 18 18 17 17 17 17 17 16 16 16 16 16 15 15 14 15 14 14 14 14 13 13 13 13 13 13 13 13 13
22 22 21 21 20 19 19 18 18 17 17 17 17 17 17 17 17 17 16 16 16 16 16 16 15 14 14 14 14 14 14 14 13 13 13 12 13 13 13 13 13 13 12
22 21 21 20 20 19 18 18 17 17 17 17 17 16 16 16 16 16 16 16 16 15 15 15 15 14 14 14 14 14 14 14 14 14 12 12 13 12 12 12 12 11 12
21 20 20 20 19 18 18 17 17 16 16 16 16 16 16 15 15 15 15 15 15 14 14 14 14 14 14 14 14 14 14 14 14 13 12 12 12 12 11 13 13 12 12
21 19 20 19 19 18 17 17 16 16 16 15 15 15 15 15 14 15 14 14 14 14 14 14 14 13 14 14 13 13 13 13 13 12 12 12 11 10 11 13 13 12 12
20 20 19 19 18 17 16 16 16 16 15 15 14 15 14 15 14 14 13 14 13 13 14 13 13 13 13 13 13 13 13 13 12 12 12 11 10 10 11 11 12 12 11
20 19 19 18 17 16 15 15 15 15 15 15 15 14 14 14 15 13 14 14 13 13 13 13 13 13 13 13 13 13 12 12 12 11 10 11 10 10 10 11 12 12 12
19 19 18 17 16 16 15 14 14 14 14 14 14 14 13 13 12 12 13 12 13 13 13 13 12 12 12 12 12 12 12 11 12 12 11 10 10 9 9 11 11 12 11
19 18 18 17 15 14 14 14 13 13 13 13 13 14 14 13 12 12 12 12 12 13 13 12 12 12 12 12 11 11 12 12 12 12 12 9 9 8 8 11 11 12 12
19 18 17 17 15 15 14 14 14 13 13 12 12 13 13 14 12 13 13 11 12 12 12 11 11 11 11 11 11 11 11 12 11 12 12 9 9 8 9 11 12 12 10
20 18 17 17 15 15 15 14 14 13 13 12 12 12 13 12 12 12 12 12 11 11 12 11 11 11 11 11 11 11 11 12 11 11 11 10 8 9 10 11 10 11 11
19 18 17 17 15 15 14 13 14 13 13 12 12 12 12 12 12 12 12 12 11 11 12 11 11 11 11 12 11 11 11 11 11 12 11 10 8 8 9 11 11 10 12
19 18 17 17 15 15 14 14 13 13 12 12 12 12 12 11 12 12 12 11 11 11 12 11 11 11 11 11 11 11 11 11 11 11 12 11 10 9 9 10 10 12 12
19 18 17 17 15 15 14 14 13 13 13 12 12 12 12 11 12 12 11 11 12 11 11 11 11 11 12 11 11 11 11 11 12 12 12 11 9 8 8 10 10 12 12
20 18 17 16 15 14 14 14 13 13 12 12 12 12 11 12 12 12 11 11 11 11 11 11 11 11 11 11 11 11 11 11 11 11 12 12 10 9 9 9 11 11 12
19 18 17 16 15 14 14 13 13 12 12 12 12 12 12 12 11 11 11 12 11 11 11 11 11 11 11 11 11 11 11 11 10 11 11 11 11 10 10 11 11 11 11
19 18 17 15 15 14 13 11 11 11 11 11 12 12 12 12 11 12 12 12 11 11 11 11 10 11 11 11 11 11 11 11 10 10 11 10 10 10 11 11 11 11 11
18 17 16 15 14 13 12 12 11 11 11 11 11 11 11 11 11 11 11 12 12 11 11 10 10 10 11 11 11 11 10 10 10 11 10 10 10 10 10 11 10 10 11
17 17 16 14 14 13 12 11 11 11 11 11 11 11 10 10 10 10 11 12 11 12 11 10 10 10 10 11 11 10 10 10 10 10 10 10 10 10 10 11 11 10 10
17 17 15 15 14 14 12 12 10 10 11 11 11 10 10 10 10 10 11 11 11 12 10 10 10 10 10 11 10 10 9 8 9 10 10 10 10 10 10 11 11 10 10
17 16 15 15 14 13 12 11 10 10 10 10 10 11 11 10 10 11 11 11 11 12 11 11 11 10 10 10 11 11 9 9 9 9 10 10 10 10 10 10 11 10 10
17 16 15 14 13 13 12 11 9 10 10 10 11 11 11 10 10 11 11 11 12 11 11 11 11 10 11 11 10 11 11 11 10 10 10 10 10 11 11 11 11 11 10
16 15 15 14 13 13 12 11 9 10 10 10 11 10 10 10 11 11 11 11 11 11 11 11 11 11 11 11 11 10 11 11 11 11 11 11 10 12 10 12 11 11 11
13 14 14 13 13 13 12 10 10 9 10 10 10 10 10 10 11 10 10 10 9 10 11 11 12 11 11 11 12 11 11 11 11 11 11 12 12 12 12 12 11 11 11

GFSSE_850_temp_087.txt.gz
Temp
22 22 23 23 22 21 21 19 18 18 18 18 18 18 18 18 18 18 18 17 17 17 17 16 16 16 16 16 15 16 15 15 15 14 14 14 14 14 14 14 14 14 14
23 23 23 22 22 21 20 19 18 18 18 18 18 18 18 18 18 18 17 17 17 17 17 16 16 16 16 15 15 15 15 15 14 14 14 14 14 14 14 14 14 14 14
23 23 22 22 22 21 20 19 18 18 18 18 18 18 18 18 18 17 17 17 17 17 17 16 16 16 16 15 15 15 15 15 14 14 14 14 13 14 14 14 13 13 13
23 22 22 22 22 20 19 19 18 17 17 18 18 18 17 17 18 17 17 17 16 16 16 16 16 16 16 15 15 15 15 14 14 13 13 13 13 13 13 13 13 13 13
22 22 22 21 21 20 19 18 17 17 17 17 17 17 17 17 17 16 16 16 16 16 16 15 15 15 15 15 15 15 14 14 14 13 13 13 13 13 13 13 13 13 12
22 21 21 21 20 20 18 17 17 17 17 17 17 17 17 17 17 15 15 15 15 15 15 14 14 14 14 14 14 14 14 14 13 12 12 12 12 12 13 12 12 12 11
22 21 21 20 20 19 18 17 16 16 16 17 17 16 16 16 16 15 14 15 15 15 14 14 14 14 14 14 14 14 13 13 13 12 12 12 12 12 13 12 12 10 10
21 21 20 19 19 18 17 17 16 16 16 16 16 16 15 15 14 14 15 14 14 15 14 14 14 14 13 13 13 13 13 13 13 11 11 12 11 11 13 13 12 11 11
20 20 20 19 18 17 17 17 16 15 16 16 15 15 14 14 14 15 14 15 14 14 14 14 13 14 13 13 13 13 13 13 13 11 11 11 11 11 12 12 12 11 11
20 20 19 18 18 17 15 15 15 15 15 15 15 15 14 14 14 14 14 15 14 13 14 13 13 13 12 12 12 12 12 12 12 11 11 10 10 10 10 11 12 11 11
20 19 19 18 18 17 15 14 14 15 15 14 14 14 15 14 14 14 13 13 12 12 13 14 13 13 12 12 12 12 11 11 11 10 12 10 10 9 10 11 11 11 10
20 20 19 18 17 16 15 14 14 13 13 14 14 14 14 14 14 14 13 13 11 11 11 13 12 12 11 11 11 11 11 11 11 11 11 10 9 9 9 11 10 11 9
19 19 19 18 17 16 15 14 14 13 13 13 13 13 13 13 13 13 12 12 11 11 12 11 12 12 11 11 11 11 11 11 11 11 10 9 9 9 9 8 10 10 9
18 18 19 18 17 16 15 14 14 14 13 13 13 12 13 12 12 13 12 12 11 11 12 11 11 12 11 11 12 11 11 11 11 11 10 9 9 9 8 8 9 9 10
19 18 18 18 17 16 15 14 14 13 13 13 12 12 12 12 12 12 11 11 10 11 11 11 11 12 11 11 11 11 11 11 11 10 9 8 8 8 8 8 8 8 10
19 18 17 17 17 16 15 14 14 13 12 12 12 12 11 11 12 11 11 11 10 11 11 11 12 11 11 12 11 11 11 11 11 10 9 8 8 8 8 8 8 8 10
21 19 17 17 17 16 15 14 13 12 12 12 11 12 11 11 11 11 11 11 11 10 11 11 11 11 11 11 11 11 11 11 10 10 9 8 8 8 8 8 8 8 8
20 19 17 16 16 16 15 14 14 11 12 11 11 12 11 11 11 11 10 11 11 11 11 11 11 11 11 11 11 11 11 11 9 9 9 8 7 7 8 8 8 8 8
21 19 17 17 16 16 15 14 13 11 12 11 11 11 12 11 11 10 11 10 11 11 11 11 11 11 11 11 11 11 11 10 9 9 10 9 9 7 8 8 7 7 9
21 18 17 17 16 16 14 13 12 11 11 11 11 11 11 11 11 10 10 10 10 10 11 11 11 11 11 11 11 10 10 10 10 9 10 10 9 8 9 9 9 9 10
20 19 17 17 16 16 14 13 11 10 11 11 10 11 11 11 10 10 11 10 10 10 11 11 10 11 10 10 11 9 10 10 9 9 9 9 9 9 10 10 10 10 10
20 19 16 16 16 15 14 13 11 11 10 11 11 11 11 10 10 10 11 11 11 11 11 10 10 10 10 10 9 10 8 8 8 9 9 10 10 9 10 10 11 11 11
19 18 16 16 16 15 14 13 11 10 10 10 10 11 10 10 10 10 11 10 11 11 11 10 10 10 10 10 10 10 8 10 9 9 9 9 10 10 10 10 11 11 11
17 16 16 15 16 15 14 13 10 10 10 10 10 10 10 10 10 10 10 10 10 11 11 10 10 10 11 11 10 10 11 11 10 9 10 10 10 10 10 11 11 12 11
16 15 15 15 15 15 14 11 9 10 10 9 10 10 10 10 10 10 10 10 10 10 10 11 10 10 10 10 11 10 11 11 12 11 10 10 10 11 11 11 11 11 13
14 15 15 15 15 14 13 10 10 9 10 10 10 10 10 10 9 10 10 10 10 10 10 11 10 10 10 10 11 11 11 11 11 11 12 12 12 12 12 12 12 11 12

GFSSE_850_temp_093.txt.gz
Temp
24 23 23 23 23 22 22 21 21 19 18 18 18 19 19 18 18 18 18 18 17 17 17 16 16 16 16 16 16 17 16 16 16 16 16 16 15 15 15 15 14 14 14
23 23 23 23 23 22 22 21 21 19 19 18 18 18 18 18 18 18 17 17 17 17 16 16 16 16 16 16 16 16 16 16 16 15 15 15 15 14 14 14 14 14 14
22 23 23 23 23 22 22 21 20 20 19 18 18 18 18 18 17 17 17 17 17 16 16 16 16 16 16 16 16 16 16 16 15 15 15 14 14 14 14 14 14 14 14
21 24 23 23 23 23 22 21 20 19 19 18 18 17 17 17 17 17 17 17 16 16 16 16 16 16 16 16 16 16 15 15 15 14 14 14 14 14 14 14 14 14 14
22 23 23 23 23 22 22 21 20 19 18 18 18 17 17 17 17 16 17 17 16 16 16 15 15 16 16 16 15 15 15 14 14 14 14 13 13 14 14 13 13 13 13
22 21 23 23 22 22 22 21 20 19 18 18 18 17 17 16 17 17 16 16 16 15 15 15 15 15 15 15 15 15 14 14 14 13 13 13 13 13 13 13 13 13 13
21 20 23 22 22 22 21 21 20 19 18 18 18 17 16 17 16 16 16 16 15 15 15 15 15 15 15 15 15 15 14 14 13 13 13 13 13 13 13 13 13 13 12
20 19 23 22 22 21 21 21 20 18 18 18 17 17 16 16 15 16 16 15 14 15 15 15 15 15 15 14 14 14 14 14 13 13 13 12 13 13 13 13 12 12 12
19 20 22 22 21 21 21 20 19 18 18 17 17 16 16 16 16 16 15 15 15 15 15 15 16 15 14 14 14 14 13 13 13 13 13 12 13 13 13 12 11 11 11
18 19 21 21 21 21 21 20 19 18 17 17 16 15 15 15 15 15 15 15 14 14 14 14 15 15 14 13 14 13 13 13 12 14 12 12 12 12 12 12 13 12 12
17 17 20 21 20 20 20 20 19 18 17 17 16 15 15 15 15 14 14 14 14 14 13 13 13 14 14 13 13 13 13 13 13 13 12 12 12 11 12 13 13 13 12
18 17 18 20 20 19 16 17 18 18 17 16 16 15 15 14 14 13 14 13 13 13 13 12 13 13 13 13 12 13 13 13 13 12 12 12 11 11 12 11 12 12 12
19 18 18 18 19 19 16 15 15 14 14 14 14 14 14 14 14 14 13 14 12 12 12 12 13 12 12 13 13 12 12 12 12 12 12 11 11 9 9 9 11 11 10
21 19 17 18 15 19 17 16 15 15 14 14 14 14 13 13 14 13 13 13 12 13 13 12 13 12 12 12 12 12 12 12 12 12 12 11 10 9 9 9 9 9 10
22 21 18 18 16 17 18 18 17 16 15 14 14 14 14 14 14 13 12 12 12 12 12 12 12 11 12 12 12 12 12 13 12 12 12 10 10 9 9 9 8 8 10
22 22 19 17 17 15 17 19 18 18 17 15 13 14 14 14 13 13 13 13 12 12 12 11 11 11 11 11 12 12 12 13 13 13 11 10 9 9 8 8 8 8 8
22 22 20 17 17 16 18 19 18 17 17 16 15 14 13 13 13 13 13 13 13 12 12 11 10 11 11 11 11 12 12 12 12 12 11 9 9 9 8 8 8 8 8
22 21 20 18 17 16 17 18 19 18 17 16 15 15 14 13 13 12 12 12 12 13 12 11 10 10 11 11 12 12 12 12 11 11 10 9 8 9 8 9 9 8 8
22 22 20 18 17 17 16 17 18 18 17 16 14 13 14 13 12 12 12 12 11 12 12 11 10 10 11 11 12 12 12 12 11 11 11 9 9 9 8 9 9 8 8
22 22 20 18 17 17 15 15 17 16 16 15 14 13 13 12 12 12 12 11 11 12 11 11 10 10 11 12 12 12 12 12 11 11 11 10 9 9 9 8 8 8 8
22 21 20 18 16 16 14 14 16 15 15 14 13 13 13 12 12 12 11 11 11 11 11 11 10 10 11 12 12 12 11 12 11 11 11 11 11 10 9 9 8 8 10
21 20 19 18 16 15 14 14 13 13 13 13 13 13 13 11 11 11 11 11 11 11 11 10 10 10 11 12 11 11 10 10 10 11 11 11 11 11 10 10 9 9 9
21 19 18 18 17 15 13 13 13 13 12 12 12 11 11 11 11 11 10 11 11 10 11 10 10 10 10 11 11 11 11 10 10 10 11 11 11 11 11 10 10 10 10
21 19 18 18 17 15 13 15 14 12 12 12 11 11 11 11 11 11 11 11 11 10 10 10 10 10 10 11 10 11 12 13 11 10 10 11 11 10 10 10 10 9 9
21 19 17 17 17 13 14 15 14 13 13 12 11 11 12 12 11 10 11 11 10 10 10 10 9 10 10 11 11 11 12 13 13 13 11 11 11 11 10 10 10 10 9
21 19 16 16 16 14 14 14 14 13 14 13 11 11 11 11 10 10 10 10 10 10 10 10 10 10 11 11 11 12 12 13 13 13 14 13 12 12 11 11 10 10 9

GFSSE_850_temp_096.txt.gz
Temp
25 25 24 24 24 24 23 23 21 20 19 19 19 19 19 19 19 18 18 18 18 18 17 17 17 16 16 16 16 16 16 16 16 16 16 16 15 15 15 15 15 15 15
25 24 24 24 24 24 23 23 22 20 19 18 18 19 19 18 18 18 18 18 17 17 17 17 16 16 17 16 16 16 16 16 16 16 16 15 15 14 14 14 15 14 14
24 24 24 23 23 23 23 23 21 20 19 18 18 18 18 18 18 17 17 18 17 17 16 16 16 17 17 17 17 16 16 16 15 15 15 15 14 15 14 14 14 14 14
25 24 24 24 23 23 22 22 21 20 19 18 18 18 18 18 17 17 17 17 16 16 16 16 16 16 16 17 16 16 16 15 15 14 14 14 14 14 14 14 14 14 14
24 24 24 23 23 23 22 22 21 20 19 18 18 17 17 17 17 17 17 17 16 16 16 16 16 16 16 16 16 16 15 15 14 14 14 14 14 14 14 14 13 13 14
22 24 23 23 23 23 22 22 21 20 19 18 18 17 17 17 17 16 17 17 16 16 16 16 16 16 16 16 16 15 15 14 14 14 14 13 14 13 13 13 14 14 14
22 22 23 23 23 22 22 22 21 20 19 19 18 17 17 17 17 16 16 16 16 15 15 15 16 16 16 16 15 15 14 13 14 13 14 13 13 13 13 13 13 13 13
22 21 22 23 22 22 22 21 21 20 19 18 18 18 17 17 16 16 16 16 16 15 15 15 15 16 16 15 15 14 13 13 13 13 13 13 13 13 13 13 12 12 12
21 21 22 22 22 22 21 21 20 20 19 18 18 17 17 16 16 16 16 15 15 15 15 15 15 15 15 15 15 14 13 13 13 13 13 13 13 13 12 12 12 12 12
20 19 22 22 22 22 21 21 20 19 19 18 17 17 16 16 15 15 15 15 15 14 14 14 14 14 14 14 14 13 13 12 13 13 13 13 12 12 12 12 11 12 12
19 18 21 21 22 21 21 21 20 19 18 17 17 16 16 15 15 15 15 14 14 14 13 13 13 13 13 13 14 14 13 13 13 13 13 13 12 11 11 11 12 13 12
19 17 18 19 21 21 21 21 20 19 19 18 17 16 16 15 15 14 14 14 13 14 13 13 14 13 12 13 13 13 13 13 13 13 13 13 12 11 12 12 13 13 12
19 18 17 18 19 20 18 21 20 20 19 17 16 16 15 15 14 14 14 14 13 13 13 13 12 13 13 13 13 13 12 13 13 13 13 12 12 11 11 13 13 12 12
21 19 18 18 18 19 17 19 19 19 18 17 16 15 15 15 14 14 13 14 13 13 13 13 12 12 13 12 12 13 12 13 13 13 13 12 12 11 10 11 12 11 10
22 20 19 19 18 18 18 17 17 17 17 16 15 15 15 14 14 14 13 13 13 13 13 13 12 12 13 13 12 12 12 12 12 12 13 12 11 11 9 9 10 10 10
22 22 20 21 19 19 18 18 18 17 16 16 15 15 15 15 14 14 13 12 13 13 12 12 12 12 11 11 12 12 12 12 12 12 12 12 11 11 9 9 9 9 10
22 23 21 21 21 19 19 17 18 18 17 16 15 16 15 15 14 14 13 13 13 13 13 12 12 11 10 10 11 11 12 12 12 12 11 11 10 10 9 9 9 9 10
22 22 22 20 21 19 18 16 16 17 18 18 17 15 15 14 14 13 12 12 12 12 12 12 12 11 11 10 11 11 12 12 13 11 11 12 10 9 8 9 9 8 9
22 23 22 20 20 20 18 16 15 15 17 17 17 17 15 14 14 14 13 13 12 12 12 12 11 11 11 10 11 11 12 12 12 11 11 11 10 9 9 9 9 8 8
23 23 23 21 20 20 17 15 15 15 14 15 16 16 16 15 14 13 12 12 12 11 12 11 11 11 11 11 11 11 11 12 11 11 11 10 10 9 9 9 9 8 8
23 23 23 21 19 20 18 15 14 15 14 14 14 15 14 14 14 12 12 12 11 11 11 11 11 11 10 10 10 11 12 12 11 11 11 10 10 9 9 9 9 10 9
22 22 22 20 19 19 18 16 13 14 14 14 14 15 13 13 13 12 12 11 11 11 11 11 11 10 10 10 11 11 11 11 11 11 11 11 11 10 10 9 10 10 10
22 22 22 20 19 18 18 14 13 13 13 13 13 12 12 13 12 12 11 11 11 11 11 11 11 10 10 10 10 11 11 11 11 11 11 11 11 10 10 10 10 10 10
22 22 21 20 19 17 17 14 13 13 13 12 12 13 12 13 12 10 10 11 11 11 11 11 11 11 10 10 10 11 12 11 11 11 11 11 11 11 10 10 10 10 10
22 21 21 20 19 17 17 15 14 13 13 12 12 12 12 11 11 11 11 11 11 10 10 11 10 10 10 10 11 11 12 11 12 12 10 11 11 11 11 10 10 10 10
21 21 20 19 18 17 17 15 14 14 13 14 13 12 12 12 11 11 11 11 11 10 11 11 10 10 10 10 10 11 12 12 11 12 12 11 11 11 11 11 10 10 10

GFSSE_850_temp_102.txt.gz
Temp
23 23 23 23 23 24 23 22 21 20 20 19 19 19 19 19 19 18 18 17 17 17 17 17 17 17 16 17 17 16 16 15 16 16 15 15 15 15 15 15 15 15 15
24 24 23 23 24 24 23 23 21 20 19 19 19 19 19 19 19 19 18 18 18 17 17 17 16 16 16 16 16 16 16 16 16 15 15 15 15 15 15 15 15 15 15
25 24 23 23 23 23 23 23 21 20 19 19 19 19 19 18 18 18 18 18 17 17 17 16 16 16 16 16 16 16 16 16 16 16 16 15 15 15 14 14 15 14 14
25 24 23 23 23 23 23 22 21 20 19 19 18 18 18 18 18 18 18 18 17 17 16 16 16 16 16 16 16 16 16 16 15 15 15 15 15 14 14 14 14 14 14
25 24 23 23 23 23 23 22 21 21 20 19 18 18 18 18 18 18 18 17 17 17 16 16 16 16 16 16 15 15 15 15 15 15 15 15 14 14 14 14 14 14 14
25 24 23 23 23 23 23 22 22 20 20 19 18 18 18 17 17 17 17 17 17 16 16 16 16 15 16 15 15 15 15 15 15 14 14 14 14 14 14 14 14 14 14
24 23 23 23 23 22 22 22 22 20 20 19 18 18 17 17 17 17 17 17 16 16 16 16 16 15 15 15 14 14 14 14 14 14 14 14 14 14 13 13 14 14 13
24 23 23 23 23 22 22 22 22 21 20 19 18 18 17 17 17 16 16 16 16 16 16 16 15 15 15 14 14 14 14 14 14 14 14 14 14 14 13 13 13 13 13
24 23 23 23 22 22 22 22 21 21 20 19 19 18 17 17 16 16 16 16 16 16 15 15 15 15 15 14 14 13 13 13 14 14 13 13 13 13 13 13 13 13 13
23 23 23 23 22 22 22 21 21 21 20 19 19 18 17 16 16 16 15 15 15 15 15 14 14 14 14 14 14 13 13 13 13 13 13 13 13 13 13 13 13 12 12
22 22 22 22 22 22 22 21 21 20 20 20 19 18 17 16 16 15 15 15 14 15 14 14 14 14 14 14 14 13 13 13 13 13 13 13 13 13 13 13 12 12 13
22 22 22 22 21 21 21 21 21 20 21 20 20 19 17 17 16 15 15 14 14 14 14 14 14 14 14 14 14 13 13 13 13 13 13 13 13 12 12 12 12 12 12
22 22 22 21 21 21 21 21 20 20 20 20 19 19 18 17 16 15 15 14 14 14 14 14 14 14 14 14 14 14 13 12 13 13 12 13 13 12 12 12 12 12 12
21 21 22 21 21 21 20 20 20 20 20 20 20 19 18 17 16 16 15 15 14 14 14 14 13 13 13 13 13 13 13 12 13 13 13 13 12 12 12 12 11 12 12
21 21 21 21 21 20 20 20 20 20 20 20 19 19 18 18 17 16 15 15 15 14 14 14 12 12 13 13 13 13 13 13 12 13 13 13 12 13 13 12 11 11 11
21 21 22 21 21 20 19 20 20 20 19 19 19 19 19 18 18 17 16 15 15 15 14 14 13 12 12 12 12 12 12 12 12 13 12 12 12 12 12 12 10 10 10
21 21 22 22 21 20 20 19 19 20 19 18 19 19 19 18 18 17 16 15 15 15 14 13 13 12 12 12 12 12 12 12 12 12 12 13 12 12 11 11 9 9 9
21 22 22 22 22 21 20 19 19 19 18 18 18 17 18 18 17 17 16 16 15 14 13 12 12 12 12 12 12 11 11 11 11 12 12 12 12 12 11 11 9 9 8
21 21 22 21 21 21 20 20 18 19 18 18 17 16 17 17 17 16 16 16 14 14 13 13 12 11 12 12 11 11 10 10 11 11 11 12 12 12 11 9 8 8 8
21 22 22 22 22 22 21 20 18 18 17 17 17 16 15 15 15 15 15 15 14 13 12 12 12 12 11 11 11 11 10 10 10 11 11 11 11 11 11 10 8 8 8
21 21 22 22 22 21 20 20 18 17 17 16 16 16 14 14 15 14 14 14 13 12 12 11 11 11 11 11 11 10 10 10 10 10 11 11 11 11 11 10 9 8 8
21 21 21 22 22 21 21 21 19 18 17 17 16 15 14 14 13 13 13 13 12 12 12 11 11 11 11 11 10 11 10 10 10 10 10 11 11 11 10 10 9 8 9
21 21 21 22 21 22 21 20 19 19 18 17 15 14 14 14 13 13 12 12 12 11 12 12 12 11 11 11 10 10 10 9 10 9 10 11 11 11 10 9 9 9 9
19 20 22 21 22 21 20 20 19 19 19 18 17 14 13 13 12 12 12 12 12 11 11 11 11 11 11 10 10 10 10 11 9 9 9 9 10 11 10 10 10 10 10
18 19 20 20 20 21 21 20 19 19 19 18 16 15 14 13 12 13 12 12 11 11 11 11 11 10 11 11 10 10 10 10 11 10 9 9 10 10 11 11 10 10 10
18 18 19 19 20 20 21 19 19 19 18 17 16 15 14 13 13 12 12 11 11 11 11 11 11 11 11 10 11 10 10 10 10 10 11 10 10 10 10 10 10 10 10

GFSSE_850_temp_105.txt.gz
Temp
23 22 21 21 21 22 22 22 22 21 21 20 20 20 20 20 18 18 17 17 17 17 17 17 17 16 16 16 16 16 16 16 16 16 16 16 15 15 15 15 15 15 15
24 23 22 21 21 21 22 22 22 21 20 20 19 19 19 19 19 18 17 17 17 17 17 17 16 16 16 16 16 16 16 16 16 16 16 16 16 15 15 15 15 15 15
24 23 22 21 21 21 21 21 22 21 20 19 19 19 19 18 18 18 18 17 17 17 17 16 16 16 16 16 16 16 16 16 16 16 16 16 15 15 15 15 15 14 14
24 23 23 23 23 22 21 21 21 21 20 19 19 18 18 18 18 18 18 18 17 16 16 16 16 16 16 16 16 16 15 16 16 15 15 15 15 15 15 15 14 14 14
23 23 23 23 23 23 22 21 21 21 20 19 19 18 18 18 18 18 18 17 17 16 16 16 16 16 16 16 16 15 15 15 15 15 15 15 14 14 14 14 14 14 14
23 23 23 23 23 22 22 21 21 21 20 19 19 18 18 17 17 17 17 17 17 16 16 16 16 16 16 16 15 15 15 15 14 14 15 15 14 14 14 14 14 13 12
24 24 23 23 23 23 22 22 21 20 20 19 19 18 18 17 17 17 17 17 16 16 16 16 16 16 16 16 15 15 14 14 14 14 14 14 14 14 14 13 13 13 13
24 24 23 23 22 22 22 21 21 20 20 19 18 18 18 17 17 17 16 16 16 16 16 16 16 15 15 15 15 15 14 14 14 14 14 14 14 14 14 13 13 13 13
24 24 23 23 22 22 21 21 21 20 20 19 18 18 18 17 17 16 16 16 16 16 15 15 15 15 15 15 15 15 14 14 14 14 13 14 14 13 13 13 13 13 13
23 23 23 23 22 22 21 21 21 20 20 19 18 18 18 17 17 16 16 16 15 15 15 15 15 14 14 14 14 14 14 14 13 13 13 13 13 13 13 13 13 13 13
23 23 23 22 22 22 22 21 21 20 19 19 18 18 18 17 17 16 16 15 15 15 14 15 14 14 14 14 14 14 14 14 14 13 13 13 13 13 13 13 13 13 13
23 22 22 22 22 22 22 22 21 20 20 19 18 18 18 17 17 16 16 15 15 14 14 14 14 14 14 14 14 14 14 15 13 13 13 13 13 13 13 13 13 13 13
23 22 22 22 21 21 21 22 21 21 20 19 18 18 18 17 17 16 16 15 15 14 14 14 14 14 14 14 14 14 14 14 15 14 13 13 13 13 13 13 13 13 13
22 22 21 21 21 20 21 21 21 21 20 20 19 19 18 17 17 16 16 15 15 15 14 14 14 14 14 14 14 14 13 14 13 13 12 12 12 13 13 12 12 12 12
19 21 22 21 21 20 20 20 21 21 21 20 19 19 18 17 17 17 16 15 15 15 15 14 14 14 13 13 13 14 13 13 13 12 12 12 12 12 12 12 12 12 11
19 20 20 21 21 20 20 20 20 20 21 20 20 19 18 18 17 17 16 16 15 15 15 14 14 14 13 13 13 13 13 13 13 12 12 12 12 12 12 12 10 10 11
21 20 19 20 21 20 20 20 20 19 20 20 20 19 18 18 17 17 16 16 16 15 14 14 13 13 12 12 12 12 12 12 12 12 12 11 12 12 11 11 11 9 9
20 20 21 20 20 20 20 20 20 20 19 19 19 19 18 17 17 16 16 16 16 15 14 13 13 12 12 13 12 12 12 11 11 11 11 11 12 12 11 11 11 10 8
20 20 20 21 20 19 19 19 20 20 20 19 19 18 18 17 17 15 15 15 15 14 14 13 12 12 12 12 12 12 12 11 11 10 11 11 11 12 12 12 10 9 8
20 20 20 20 21 20 20 20 19 19 19 19 18 17 17 17 17 15 15 15 14 14 13 12 12 12 12 12 11 11 11 11 11 11 11 11 11 11 11 11 10 8 8
19 20 20 20 20 21 19 20 19 19 20 19 18 17 17 16 16 16 15 14 13 13 13 13 12 11 12 11 11 11 11 10 10 10 10 10 10 11 11 11 10 8 9
19 20 20 20 20 20 21 21 20 20 20 20 18 17 17 16 16 15 15 14 13 13 13 12 12 11 11 11 11 10 10 10 10 10 10 10 10 10 10 10 10 9 9
19 19 20 19 20 20 20 20 20 18 18 18 17 17 17 16 15 14 14 13 13 12 12 12 12 11 12 11 11 10 10 10 10 10 10 10 10 10 10 10 9 9 9
18 19 19 20 20 19 19 20 20 20 19 19 18 18 17 17 15 14 13 13 12 12 12 12 12 11 12 12 10 11 10 11 10 9 10 9 10 10 10 10 10 9 9
16 17 19 20 21 20 20 19 20 19 19 20 18 18 17 17 15 14 13 12 12 12 12 12 12 12 12 11 11 11 10 10 10 10 9 9 10 9 10 10 10 9 10
13 16 19 20 21 21 20 19 19 20 19 18 18 18 18 17 15 13 13 12 12 12 12 12 12 11 11 11 11 11 11 10 10 10 11 10 10 10 10 10 9 9 10

GFSSE_850_temp_108.txt.gz
Temp
24 23 21 21 21 21 21 22 22 22 21 21 20 20 19 19 19 18 18 17 17 17 17 17 16 16 16 17 16 16 16 16 16 16 16 16 16 16 16 16 15 15 15
25 23 21 21 21 20 21 21 21 21 21 21 20 20 19 19 18 18 17 17 17 17 17 17 16 16 16 16 16 16 16 16 16 16 15 15 15 15 15 15 15 15 15
24 23 22 21 21 20 20 21 21 21 20 20 20 20 19 18 18 18 17 17 17 17 17 16 16 16 16 16 16 16 16 16 16 15 15 14 15 15 15 15 15 15 15
24 23 23 22 21 21 21 21 20 20 20 20 19 19 19 19 18 18 17 17 17 17 16 16 16 16 16 16 16 16 16 16 15 15 15 14 15 15 15 14 15 15 14
24 24 23 22 21 21 21 21 20 20 20 19 19 19 18 18 18 18 18 17 17 16 16 16 16 16 16 16 16 16 16 15 15 15 15 14 14 14 14 14 14 14 14
24 23 23 22 22 21 21 21 20 20 19 19 19 18 18 18 18 18 17 17 17 16 16 16 16 16 16 16 16 16 15 15 15 15 15 14 14 14 14 14 14 14 13
24 23 23 22 22 21 21 21 20 19 19 19 19 18 18 18 18 18 17 17 17 16 16 16 16 16 16 16 16 16 15 15 14 14 14 14 14 14 14 14 13 13 12
24 23 22 22 21 21 21 20 20 19 19 19 18 18 18 18 18 17 17 17 17 16 16 16 16 16 16 16 16 15 15 15 15 14 14 14 14 14 14 13 12 12 13
23 23 22 22 21 21 21 21 20 19 19 18 18 18 17 17 17 17 17 16 16 16 16 16 16 16 16 15 15 15 15 14 14 14 14 13 14 14 14 13 13 14 13
22 22 22 21 21 21 21 20 20 19 18 18 18 18 17 17 17 17 17 16 15 15 15 16 15 15 15 15 15 15 14 14 14 14 14 13 13 13 13 13 13 13 13
22 22 22 21 21 21 21 20 19 19 19 18 18 18 17 17 16 16 16 16 15 15 15 15 15 15 15 15 15 15 15 14 14 14 14 13 13 13 13 13 13 13 13
20 21 22 21 21 21 21 20 19 19 19 19 18 18 17 16 16 16 16 16 15 15 15 15 15 14 14 15 15 14 14 14 14 14 13 13 13 13 13 13 13 13 13
19 19 19 21 21 21 21 21 20 19 19 19 19 18 18 17 16 16 15 15 15 15 15 14 14 14 15 15 15 15 14 13 14 14 14 14 13 13 13 13 13 13 13
18 19 19 19 20 21 21 20 20 20 19 19 19 18 18 17 16 15 15 15 15 15 15 15 14 14 14 14 15 15 14 14 14 14 13 13 13 13 13 13 13 12 12
19 19 19 19 20 20 20 20 20 20 20 20 19 19 18 18 17 16 15 15 15 15 15 15 14 14 14 14 14 14 14 13 13 13 12 12 12 12 13 13 12 12 11
21 21 20 19 19 19 19 20 20 20 21 20 20 19 19 19 18 16 15 15 15 15 15 15 14 14 14 14 13 13 13 13 13 12 13 12 12 12 12 12 11 11 10
20 20 21 20 19 19 18 18 19 20 20 20 20 20 19 19 19 17 16 15 15 15 14 14 14 13 13 12 13 13 13 13 13 12 12 12 12 11 12 11 11 10 10
19 20 20 20 20 20 19 19 19 18 18 19 19 20 19 19 18 18 16 16 15 15 14 14 13 13 13 12 13 13 12 12 12 12 12 11 11 11 11 11 11 10 10
18 19 19 20 20 20 20 19 19 19 19 19 18 19 19 18 18 18 16 15 15 14 14 13 13 13 13 12 12 12 12 12 12 12 11 11 11 11 11 11 11 11 9
18 19 19 19 19 20 20 19 19 19 19 19 19 18 19 18 18 17 17 15 14 14 14 13 13 13 12 12 12 12 12 12 12 11 11 11 11 11 11 11 11 10 9
18 18 19 19 19 19 19 19 19 19 19 19 19 18 18 18 18 17 17 15 14 14 14 14 13 12 12 12 12 12 11 11 11 10 10 11 11 10 11 10 10 10 9
17 18 18 19 19 19 18 19 19 20 19 20 20 18 17 18 18 17 17 16 14 14 13 13 13 12 12 11 12 11 10 11 11 11 10 11 11 11 10 10 10 10 10
16 17 17 18 19 19 18 18 16 16 17 16 18 19 17 16 17 17 17 16 15 15 13 13 12 12 12 11 11 11 10 10 11 12 10 11 10 10 10 10 10 10 10
13 14 16 17 18 19 19 18 15 15 17 19 19 20 18 17 17 17 16 16 15 14 13 13 12 12 12 11 12 11 11 11 10 10 11 10 10 10 10 10 10 10 10
8 11 14 17 18 19 19 18 17 16 18 20 20 19 19 18 17 17 16 15 15 14 13 12 12 12 12 12 12 11 11 11 10 9 10 10 10 10 10 10 10 11 10
7 8 12 16 18 19 19 18 18 17 18 18 18 18 18 18 17 17 16 15 14 14 13 12 12 12 12 12 12 12 11 11 10 10 9 10 10 10 10 10 10 10 10

GFSSE_850_temp_111.txt.gz
Temp
23 23 23 23 22 21 20 20 20 20 20 20 20 20 20 19 19 19 18 18 18 18 18 17 17 17 17 16 16 16 16 16 16 16 16 16 16 16 16 15 15 16 15
24 23 23 23 22 21 20 20 20 20 20 20 20 20 19 19 19 18 18 18 18 18 17 17 17 17 17 17 16 16 16 16 16 16 16 15 15 15 15 15 15 15 15
23 23 23 22 22 21 20 20 20 20 20 20 19 19 19 19 18 18 18 18 18 17 17 17 17 16 16 16 16 16 16 16 16 15 15 14 15 15 15 15 15 15 15
24 23 23 22 22 21 20 20 20 20 20 20 19 19 19 18 18 18 18 18 18 17 17 17 16 16 16 16 16 16 16 16 15 15 14 14 15 15 15 14 15 14 14
23 23 23 22 22 21 20 20 20 20 20 19 19 19 19 18 18 18 18 18 18 17 17 16 16 16 17 16 16 16 16 16 15 15 15 14 14 14 14 14 14 14 14
23 23 23 22 21 21 20 20 19 19 19 19 19 19 18 18 18 18 18 18 17 17 17 16 16 16 16 16 16 16 16 15 15 15 14 13 14 14 14 14 14 14 14
22 23 22 22 21 21 20 19 19 19 19 18 18 18 18 18 18 18 18 18 17 17 17 16 16 16 16 16 16 16 16 15 15 15 15 13 13 14 14 14 14 13 13
22 22 22 21 21 20 20 19 19 19 19 18 18 18 18 18 18 17 17 17 17 17 17 16 16 16 16 16 16 16 15 15 15 14 14 15 14 14 14 14 13 13 12
21 21 22 21 20 20 20 19 19 19 18 18 18 18 17 17 17 17 17 17 17 17 17 16 16 16 16 16 16 15 15 15 15 14 14 14 14 14 13 13 12 12 14
20 20 20 21 21 20 19 18 18 18 18 18 17 17 17 17 17 17 17 16 16 17 17 17 16 16 16 16 16 15 15 15 14 14 14 14 14 14 13 13 13 14 14
19 19 19 20 20 19 19 18 18 18 18 18 17 17 17 17 16 16 16 16 16 16 16 16 16 16 16 16 15 15 14 14 14 14 14 14 13 13 13 13 13 13 13
18 19 19 19 19 18 18 18 18 18 17 17 17 17 16 17 17 16 16 15 15 15 15 16 16 15 15 15 15 14 14 14 14 13 13 14 13 13 13 13 13 13 13
18 18 19 19 19 18 18 18 18 19 18 18 17 17 17 16 16 16 15 15 15 15 15 15 15 15 15 15 15 15 14 14 14 14 14 13 13 13 13 13 13 13 13
19 19 19 18 19 19 18 18 19 19 19 19 18 18 17 17 16 16 16 15 15 15 15 15 15 15 15 15 15 15 14 14 14 14 14 14 13 13 13 13 13 13 12
20 20 20 19 19 19 19 19 19 19 20 20 19 18 18 17 17 16 16 15 15 15 14 14 15 15 15 14 14 14 14 14 14 14 13 13 13 12 12 13 12 13 12
18 19 20 20 20 20 19 19 19 19 20 19 19 19 18 18 18 17 16 16 15 15 14 14 14 14 14 14 14 14 14 14 13 13 13 13 12 12 12 12 12 11 11
18 18 18 19 20 19 19 19 19 19 19 20 20 19 18 18 18 17 17 16 16 15 14 14 13 14 13 14 13 13 13 13 13 13 13 13 12 11 11 12 11 11 10
17 18 19 19 19 19 20 19 19 19 19 19 18 19 18 18 18 18 17 16 16 16 14 14 13 13 13 13 13 13 12 12 12 12 12 12 12 12 12 11 11 11 10
17 18 18 18 19 19 19 19 19 19 19 19 18 19 19 18 19 18 18 17 16 15 15 14 13 13 13 13 12 12 12 12 12 12 12 12 12 11 11 11 11 11 10
17 17 18 18 18 18 18 18 19 18 18 18 19 19 18 17 18 18 18 18 16 16 15 14 13 13 13 12 13 12 13 12 12 12 12 12 11 11 11 10 10 10 11
15 16 17 18 18 18 18 18 18 18 18 19 19 19 19 17 17 18 17 18 16 16 16 15 14 13 13 12 12 12 12 12 12 12 12 12 11 11 10 10 10 10 11
14 15 17 17 18 18 17 18 18 18 19 19 19 19 19 19 17 18 17 18 17 16 15 15 14 13 13 13 12 12 11 11 11 11 12 11 11 11 11 10 10 10 10
10 12 15 16 17 17 17 15 15 14 14 15 15 18 19 19 18 17 17 16 17 16 16 16 15 14 13 13 12 12 11 11 11 11 12 12 12 11 11 10 10 10 10
7 9 12 15 16 17 17 16 13 15 13 13 18 19 19 19 18 18 17 16 16 16 16 16 15 14 13 13 12 12 11 11 11 10 11 12 11 11 11 11 10 10 10
5 5 7 12 13 16 17 16 15 14 15 13 17 18 18 19 19 18 17 17 15 16 16 16 15 14 13 12 12 12 11 11 10 10 10 11 11 10 10 10 10 10 10
3 4 5 6 9 13 16 16 15 15 13 13 14 16 17 18 19 18 17 16 16 16 16 16 15 13 13 12 12 12 12 12 11 10 10 10 11 11 11 10 10 10 10

GFSSE_850_temp_117.txt.gz
Temp
25 23 23 23 22 22 22 21 21 21 21 20 20 20 20 20 20 20 19 19 19 18 18 18 17 17 17 17 17 17 17 17 17 17 17 16 16 16 16 15 15 15 15
23 23 23 23 22 22 22 22 21 21 20 20 20 19 19 19 19 19 19 19 18 18 18 18 17 17 17 17 17 17 17 17 17 16 16 16 16 15 15 15 14 15 15
21 22 22 23 23 22 22 21 21 21 20 20 20 19 19 19 19 18 18 18 18 18 17 17 17 17 17 17 17 17 17 16 17 16 16 15 15 16 15 15 15 15 15
21 19 21 22 22 22 22 22 21 21 20 20 20 19 19 19 18 18 18 18 17 17 17 17 17 17 17 17 17 16 16 16 16 16 15 15 14 15 15 15 15 15 15
21 20 19 21 22 22 22 21 21 21 20 20 19 19 19 19 18 18 18 17 17 17 17 17 17 17 17 17 16 17 16 16 16 15 15 15 14 15 15 15 15 15 15
21 20 19 20 21 21 22 21 21 20 20 20 19 19 19 18 18 18 18 17 17 17 17 17 17 17 17 17 17 16 16 16 17 16 15 15 14 15 15 14 14 15 15
20 20 19 20 20 20 20 20 20 20 20 19 19 19 19 18 18 18 17 17 17 17 17 17 16 16 17 17 17 16 16 16 16 16 16 14 14 15 14 14 15 14 14
19 19 18 19 19 19 19 20 20 20 19 19 19 19 18 18 18 18 17 17 17 17 17 16 16 16 16 16 17 16 16 16 16 15 14 14 14 14 14 14 14 14 14
18 18 17 19 19 18 19 19 19 19 19 19 19 18 18 18 18 17 17 17 17 17 17 16 16 16 16 16 16 16 16 16 16 16 14 14 14 14 14 14 14 14 14
17 17 17 18 19 18 18 18 18 18 19 19 18 18 18 17 17 17 17 17 16 17 16 16 16 16 16 16 16 16 16 16 16 15 15 14 14 14 14 14 14 14 14
18 17 17 17 17 16 16 18 17 17 18 18 18 17 17 17 17 16 16 17 16 16 16 16 16 16 16 16 15 15 15 15 15 16 16 15 15 14 14 14 14 13 14
20 16 16 17 16 16 17 16 17 17 17 17 17 17 17 16 15 15 15 16 16 16 16 15 15 16 15 15 15 15 15 14 15 16 15 15 14 14 14 13 13 13 14
20 18 16 16 16 17 17 17 16 16 15 16 16 16 17 15 16 15 15 15 16 15 15 15 15 15 15 14 14 13 13 15 15 15 15 15 14 14 14 13 13 13 13
19 19 17 16 15 17 18 16 17 17 16 16 15 15 15 15 15 15 15 15 14 14 14 15 14 15 14 15 14 14 14 14 15 15 15 15 14 14 13 13 13 13 13
19 18 17 16 16 15 16 16 17 17 16 16 16 15 16 16 16 15 16 16 15 15 14 14 14 14 14 14 14 14 14 14 15 15 14 14 15 14 14 13 13 13 13
19 18 17 17 16 15 15 15 15 16 16 15 15 15 15 16 15 16 16 17 16 16 15 15 14 14 14 14 14 13 14 14 14 14 14 14 14 14 13 13 13 13 12
18 19 18 17 16 16 15 15 15 15 15 16 15 15 17 16 15 15 16 16 17 17 15 15 14 14 14 14 14 13 13 14 14 14 14 14 13 14 13 13 12 12 12
18 18 17 17 16 15 16 16 15 15 15 16 16 15 17 18 16 15 16 16 16 17 15 15 14 14 14 14 14 14 13 13 13 13 13 14 13 13 13 13 13 12 12
16 15 15 14 14 14 15 16 15 15 15 15 16 15 15 19 19 16 14 16 16 16 15 14 14 14 14 14 14 14 13 13 13 13 13 13 13 12 12 13 12 12 12
12 12 12 12 12 13 14 15 16 15 15 15 15 16 15 15 18 17 14 14 16 16 15 14 14 14 14 14 13 13 13 13 13 13 13 13 12 12 11 12 12 12 12
9 9 10 10 10 11 12 14 15 16 15 15 15 15 15 15 15 15 15 15 16 17 17 14 14 14 14 14 14 13 13 13 13 13 13 13 13 12 12 11 11 12 12
7 7 7 7 8 9 10 12 14 16 16 16 15 15 15 15 15 15 15 15 15 16 16 14 13 14 14 14 13 13 13 13 13 13 13 13 12 12 11 12 11 12 11
6 6 5 5 6 6 7 8 10 12 15 16 15 15 15 15 15 15 15 16 15 16 17 14 13 14 13 14 14 13 13 15 16 14 13 12 12 12 11 12 11 12 11
5 5 4 4 4 4 5 6 8 10 14 16 16 14 15 15 15 15 15 15 15 16 16 18 16 15 14 14 13 14 14 16 17 16 14 13 12 12 12 12 13 12 12
3 3 2 2 2 3 4 4 5 7 10 12 14 15 15 15 15 15 15 15 14 14 17 18 16 14 13 13 13 13 13 14 14 15 15 13 12 12 12 12 13 13 12
1 1 0 0 1 1 2 2 3 5 7 9 12 15 15 14 14 15 14 14 14 14 14 16 17 15 13 12 13 12 12 13 14 14 13 14 13 13 12 11 11 13 13

GFSSE_850_temp_123.txt.gz
Temp
23 23 24 24 24 24 24 24 23 22 22 21 21 20 20 20 20 20 20 20 19 19 18 18 18 17 17 17 17 16 16 16 16 16 16 16 16 16 16 16 16 16 15
22 22 23 24 24 24 23 23 23 22 22 21 20 20 20 20 20 20 20 19 19 19 18 18 17 17 17 17 17 17 16 16 16 16 16 16 16 16 16 15 16 15 15
22 22 22 23 23 23 23 23 22 22 22 21 20 20 20 19 19 19 19 19 19 18 18 18 17 17 17 17 17 17 16 16 16 16 15 16 16 16 16 15 15 15 15
22 21 21 22 22 23 22 22 22 22 21 20 20 20 19 19 19 19 19 18 18 18 18 18 17 17 17 17 17 17 16 16 16 15 15 15 15 15 15 15 15 15 15
21 21 21 21 21 21 22 21 21 21 21 20 20 19 19 19 19 18 18 18 18 18 18 18 17 17 17 17 16 16 16 16 15 15 15 15 15 15 15 15 15 15 15
21 21 21 20 20 21 21 21 21 21 21 20 20 19 19 19 19 18 18 18 18 17 17 17 17 17 17 17 16 16 15 15 15 15 14 15 15 15 15 15 15 15 15
20 20 20 20 20 20 21 20 20 20 20 20 19 19 19 19 18 18 18 17 17 17 17 17 17 17 17 17 16 16 15 15 15 16 16 15 15 15 15 15 15 15 15
20 19 19 20 20 20 20 20 20 20 20 19 19 19 19 18 18 18 17 17 17 17 17 17 17 16 16 17 17 16 15 14 16 17 16 15 15 15 15 15 14 14 14
20 20 18 19 19 19 19 20 20 20 20 19 19 19 18 18 18 18 17 17 17 17 16 16 16 16 16 17 16 16 16 14 14 14 15 14 15 15 14 14 14 14 14
20 20 19 19 18 18 19 19 19 19 19 19 19 19 19 18 18 17 17 17 17 16 16 16 16 16 16 16 16 16 16 15 14 14 14 14 15 15 14 14 14 14 14
20 20 20 19 19 18 18 19 19 19 19 19 19 19 18 18 18 18 17 17 16 16 16 16 16 16 16 16 16 16 16 15 15 15 15 16 14 14 14 14 14 14 14
20 20 19 18 18 17 17 18 18 18 19 19 19 18 18 18 18 18 18 17 16 16 16 16 16 16 16 16 16 16 17 15 15 15 15 15 15 15 15 14 14 14 13
20 19 19 18 17 16 16 17 17 18 18 18 18 18 18 18 18 18 17 17 17 16 16 16 16 16 16 16 16 16 16 16 14 14 15 15 15 15 15 14 14 14 14
19 19 19 18 17 16 16 16 16 17 17 18 18 18 17 17 17 17 17 18 17 17 17 16 16 16 16 16 16 15 16 16 15 15 15 15 15 14 14 14 14 14 13
19 19 19 19 18 18 16 16 16 16 16 17 17 18 18 17 17 17 17 17 17 17 16 16 16 16 16 16 16 16 15 15 15 14 14 15 14 14 15 15 14 14 13
18 17 17 15 15 15 15 15 15 15 15 16 17 17 18 18 17 16 15 16 16 16 16 16 16 16 16 16 16 15 16 15 14 14 14 14 15 15 15 15 14 14 13
16 16 17 16 15 15 14 14 14 15 15 15 16 17 17 17 17 17 15 16 16 16 16 16 16 16 15 15 15 15 14 14 14 14 14 14 14 14 14 15 14 14 13
16 17 15 15 15 15 15 15 15 14 14 14 15 16 15 17 16 16 16 16 16 15 16 16 16 16 16 15 15 15 14 14 14 14 14 14 14 14 14 14 14 13 13
13 13 13 13 13 14 14 14 15 14 14 14 15 15 15 15 16 16 16 16 16 16 16 16 16 16 16 15 15 15 14 14 14 14 14 14 14 14 14 14 14 13 13
11 12 12 13 13 13 13 13 13 14 14 14 14 14 15 15 15 15 16 15 16 15 16 16 16 16 16 16 15 15 14 14 14 14 14 14 14 13 13 13 13 13 13
10 11 12 13 12 12 12 12 12 12 13 14 14 14 14 15 15 15 16 15 16 15 16 16 16 16 16 15 15 14 14 14 14 14 14 14 13 13 13 13 13 12 13
7 8 9 10 9 8 8 8 8 9 11 12 13 13 13 14 14 16 16 14 15 16 16 16 16 16 16 16 15 14 13 13 14 14 14 13 14 13 13 13 13 13 13
4 4 5 6 7 6 5 5 6 7 9 10 12 12 12 13 13 14 15 14 16 15 16 16 15 15 16 15 15 15 14 14 14 14 14 13 13 13 14 13 13 13 13
1 2 3 4 3 4 4 4 3 3 4 8 10 12 12 13 13 13 13 15 16 15 15 16 16 15 16 16 15 15 15 16 14 14 14 15 14 14 13 13 13 13 13
1 2 2 2 2 2 3 2 2 2 2 2 7 10 12 12 13 12 12 13 14 14 15 16 16 15 15 17 16 16 14 14 15 16 15 15 14 14 13 13 13 13 14
0 -0 0 -0 -1 0 2 2 1 0 0 0 1 7 10 12 13 13 12 12 13 14 15 15 16 14 14 15 15 15 15 14 14 15 15 15 16 15 14 13 13 14 14

GFSSE_850_temp_129.txt.gz
Temp
22 22 21 21 21 21 21 21 21 22 22 21 21 20 20 20 19 19 18 18 18 18 18 18 18 17 17 16 16 17 16 16 16 16 16 16 16 16 16 16 16 15 15
22 22 22 22 21 21 21 21 21 21 21 21 20 20 20 20 19 19 19 18 18 18 18 18 17 17 17 17 17 17 16 16 16 16 16 16 16 16 16 16 16 15 15
22 22 21 21 21 21 21 21 21 21 21 21 20 20 20 19 19 19 18 18 18 17 17 17 17 17 17 17 17 16 16 16 16 16 16 16 16 16 15 15 15 15 15
22 22 21 21 21 21 20 20 20 21 21 20 20 20 19 19 19 19 18 18 17 17 17 17 16 16 16 17 17 17 16 16 16 15 15 15 16 15 16 15 15 15 15
21 21 21 21 21 21 20 20 20 20 20 20 20 19 19 19 19 19 18 18 18 17 17 17 16 16 16 16 16 16 16 16 16 15 15 15 15 15 15 15 15 15 15
21 21 20 20 20 20 20 20 20 20 20 20 19 19 19 19 19 18 18 18 18 18 17 17 17 16 16 16 16 15 15 16 15 15 15 15 15 15 15 15 15 15 15
21 20 20 19 19 19 19 20 20 20 20 20 19 19 19 18 18 18 18 18 18 18 17 17 17 16 16 16 16 15 15 15 15 16 15 15 15 15 15 15 15 15 15
21 21 20 19 19 19 18 19 20 20 20 19 19 19 19 18 18 18 18 18 18 18 17 17 17 16 16 16 16 16 15 15 15 15 15 15 15 15 15 15 14 14 14
21 20 20 20 19 18 18 18 19 20 20 19 19 19 18 18 18 18 18 18 17 17 17 17 17 16 16 16 16 16 16 15 15 15 14 14 14 15 15 15 15 14 14
20 20 20 19 18 17 17 18 18 19 19 19 19 19 18 18 18 17 17 17 17 17 17 17 17 16 16 16 16 16 16 16 16 15 14 15 14 14 14 15 15 15 14
20 20 19 18 18 17 17 17 17 18 18 18 18 18 18 18 18 17 17 17 17 17 17 17 17 16 16 16 17 17 16 15 16 16 15 15 14 14 14 14 14 14 14
19 19 17 17 16 16 16 16 16 16 17 17 18 18 17 17 17 17 16 16 16 16 17 17 16 16 16 16 16 16 17 16 15 16 16 15 15 15 14 14 14 14 14
19 18 17 16 16 16 16 15 15 15 16 16 17 17 16 16 16 16 16 16 16 16 16 16 16 15 16 16 16 16 17 16 16 16 16 15 15 15 14 14 14 14 14
18 18 16 16 16 16 15 14 15 15 14 15 16 16 16 16 16 16 16 16 15 15 16 16 16 16 15 15 16 16 16 16 16 16 15 15 15 15 14 14 14 14 14
17 16 15 15 16 16 15 14 15 15 15 15 14 15 15 16 16 16 16 16 16 15 15 16 16 16 16 15 15 16 16 16 16 15 15 15 15 14 14 14 14 14 13
14 15 15 15 15 15 15 15 14 14 15 15 14 14 14 14 14 15 16 16 16 16 15 15 15 16 16 16 15 15 16 15 16 15 15 15 15 15 14 14 14 14 13
12 12 13 13 14 14 14 14 14 14 14 14 14 14 14 14 14 13 14 15 15 15 15 15 15 15 15 15 15 15 15 15 15 15 15 15 15 15 14 14 14 14 14
10 11 11 11 12 13 14 14 14 14 14 14 14 14 14 15 13 13 14 13 14 14 14 15 15 14 14 15 15 15 15 15 15 15 14 15 14 15 15 14 14 14 14
9 9 10 11 11 12 13 14 14 14 14 14 15 15 15 14 14 13 12 14 13 13 13 14 14 15 14 14 14 14 15 15 15 14 14 14 15 14 14 15 15 14 14
8 9 9 10 11 11 12 13 13 14 14 14 15 15 15 15 14 14 13 12 13 12 13 13 14 14 15 15 14 14 14 14 14 14 14 14 14 14 14 14 14 15 14
8 9 9 9 10 11 12 13 14 14 15 15 15 15 14 14 13 13 13 13 11 11 12 12 13 13 14 14 15 14 14 14 14 14 14 14 13 14 14 14 14 14 14
7 7 8 8 9 9 9 9 10 11 13 13 14 14 13 12 12 12 11 11 11 13 12 11 12 13 13 14 14 14 13 13 13 14 14 13 14 13 13 14 13 13 13
5 5 6 6 7 8 8 8 8 8 9 10 11 11 11 10 10 11 11 11 11 12 11 11 11 13 13 13 14 15 13 13 13 14 13 13 13 13 13 13 13 13 13
1 1 2 3 4 5 5 5 5 5 7 6 7 8 9 8 9 9 10 10 10 11 12 10 11 10 12 12 13 13 14 16 14 14 14 14 13 14 14 13 13 13 14
-0 0 0 0 -0 -0 0 1 1 1 2 3 3 4 6 5 6 7 8 9 10 10 11 11 10 12 12 11 12 12 14 15 14 13 13 15 15 14 14 14 14 14 14
-2 -2 -3 -2 -1 -1 -1 -0 -0 -1 -2 -0 0 1 3 3 4 5 6 7 8 9 10 11 10 10 11 11 12 12 13 14 13 13 13 13 14 15 14 14 14 14 14

GFSSE_850_temp_132.txt.gz
Temp
22 21 21 21 21 21 20 20 20 20 21 21 20 20 20 20 19 19 18 18 18 19 18 18 18 17 17 17 17 17 16 16 16 16 16 16 16 16 16 16 16 16 16
22 22 21 21 21 21 21 20 20 20 20 20 20 20 20 19 19 19 19 18 18 18 18 18 18 17 17 17 17 17 16 16 16 16 16 16 16 16 16 16 16 16 15
21 21 21 21 21 20 20 20 20 20 19 20 20 20 19 19 19 19 19 18 18 18 18 18 17 17 17 17 17 17 16 16 16 16 16 16 16 16 15 15 16 16 15
22 21 21 20 20 20 20 20 20 20 19 19 19 19 19 19 19 19 18 18 18 18 18 18 17 17 17 17 17 16 16 16 16 16 15 16 15 16 15 15 15 15 15
20 20 20 20 20 20 20 20 20 20 20 19 19 19 19 19 19 18 18 18 18 18 17 17 17 17 17 17 16 16 16 16 15 15 15 15 15 15 15 15 15 15 15
20 20 19 19 19 19 19 19 20 20 20 19 19 19 19 18 18 18 18 18 18 17 17 17 17 17 17 16 16 16 16 16 15 15 15 15 15 15 15 15 15 15 15
20 19 19 19 18 18 18 18 18 19 19 19 19 18 18 18 18 18 18 18 17 17 17 17 17 17 17 16 16 16 16 15 15 15 15 15 15 15 15 15 15 15 15
19 19 19 18 18 18 18 18 18 18 18 18 18 18 18 18 18 18 18 18 17 17 17 17 17 16 17 17 17 16 16 15 15 15 15 15 15 15 15 15 15 15 14
19 18 18 18 18 17 17 17 18 18 18 18 18 17 17 17 17 18 17 17 17 17 17 17 17 16 16 16 17 16 16 16 16 15 16 16 15 15 15 14 14 14 14
20 19 17 17 17 16 16 16 16 17 17 17 17 17 17 17 16 17 17 17 17 17 17 17 17 16 16 16 16 16 16 16 16 15 16 15 15 15 14 14 14 14 14
19 19 18 17 17 17 16 16 16 16 15 17 17 16 16 16 16 16 16 16 16 16 16 16 16 16 16 16 16 16 16 16 16 16 15 15 15 15 15 14 14 14 14
19 19 18 17 16 16 16 15 15 15 15 15 16 16 16 16 16 15 15 16 16 16 16 16 16 16 16 16 16 15 16 15 15 15 15 15 15 15 15 14 14 14 14
17 17 17 17 16 16 16 15 15 14 15 15 15 15 15 15 15 15 15 15 15 16 16 15 15 15 16 16 16 16 16 15 15 15 15 15 15 15 15 15 14 14 14
15 15 15 15 15 15 15 16 15 14 15 16 15 15 14 14 15 16 16 15 15 15 16 15 15 15 15 16 16 16 16 15 16 15 15 15 15 15 15 15 14 14 14
13 13 13 13 14 14 14 14 14 15 15 15 16 15 14 14 14 14 15 15 15 15 15 15 15 15 14 15 16 16 16 15 15 16 15 15 15 15 14 14 15 14 14
11 12 12 12 12 13 13 13 14 14 15 15 14 14 15 13 14 13 13 14 14 15 15 15 15 15 15 15 15 15 16 16 15 15 15 15 15 15 15 14 14 14 14
9 10 11 11 12 12 12 13 13 13 14 14 14 14 14 14 14 13 13 14 13 14 14 14 15 15 15 15 15 15 15 15 16 15 15 15 15 15 15 14 14 14 14
8 9 9 10 11 11 12 12 12 12 13 13 13 13 14 14 14 14 14 15 13 12 13 13 14 14 15 15 15 15 14 15 15 15 15 15 14 15 14 14 14 14 14
8 9 9 10 11 11 12 12 13 12 13 13 13 14 14 13 14 14 14 13 15 13 10 12 13 13 13 14 14 15 15 14 14 15 15 15 15 14 14 14 14 14 14
8 8 9 9 10 10 11 12 12 13 13 13 13 13 13 14 13 14 14 13 12 14 15 15 11 12 13 13 13 14 14 15 14 14 14 15 15 14 14 14 14 14 14
8 8 8 9 9 9 10 11 12 13 13 13 13 13 14 13 12 13 13 13 12 13 13 12 12 13 14 12 12 13 13 14 14 14 14 14 14 14 14 14 14 14 14
7 7 7 8 8 8 8 9 8 9 10 10 11 11 11 11 11 11 11 13 12 12 12 11 11 13 12 12 12 12 12 13 14 14 14 14 14 14 14 14 14 13 13
5 5 5 6 6 6 6 6 7 7 7 8 8 9 9 10 10 9 9 10 12 10 11 11 10 11 12 12 11 11 13 13 14 15 14 14 14 13 13 13 13 13 13
2 2 2 3 3 3 3 3 3 3 4 4 5 6 7 6 8 8 8 8 10 10 10 11 10 11 11 11 12 12 12 12 14 15 15 15 14 14 14 14 14 13 13
0 -1 -2 -2 -1 -1 -1 -1 -1 -1 -2 -1 0 1 2 4 5 5 5 6 7 8 9 10 10 10 11 11 10 10 12 11 11 13 15 15 14 14 15 14 14 14 13
-2 -3 -3 -3 -3 -3 -4 -4 -6 -6 -6 -5 -5 -4 -1 1 1 2 1 3 5 6 7 8 8 9 10 11 11 12 12 10 11 11 12 13 14 15 15 15 14 15 15

GFSSE_850_temp_138.txt.gz
Temp
19 20 20 20 20 20 19 19 19 20 20 20 20 20 20 19 19 19 19 19 19 19 18 18 18 18 17 17 17 17 17 17 17 17 17 16 16 16 16 16 16 15 15
19 20 20 20 20 20 20 19 19 19 19 20 19 20 20 20 19 19 19 19 19 19 18 18 18 18 17 17 17 17 17 17 17 17 17 16 16 16 16 16 15 15 15
20 20 20 20 19 19 19 19 19 19 19 19 19 19 19 19 19 19 19 19 19 19 19 18 18 18 18 18 17 17 17 17 17 16 16 15 14 16 16 16 16 15 15
19 19 20 19 19 19 19 19 19 19 19 19 19 19 19 19 19 19 19 19 19 19 18 18 18 18 18 17 17 17 17 17 17 16 16 15 15 16 16 16 15 15 15
18 18 19 19 19 19 19 19 19 19 18 18 18 18 18 18 18 18 19 18 18 18 18 18 18 18 18 17 17 17 17 17 16 16 17 15 15 15 16 16 15 15 15
17 17 19 18 18 18 18 18 18 18 18 18 18 18 18 17 18 18 18 18 18 18 18 18 18 18 18 17 17 17 17 17 16 15 17 15 15 15 16 15 15 15 15
17 17 18 18 18 17 17 17 17 17 17 17 17 17 17 17 17 17 17 17 18 18 17 17 17 17 17 17 17 17 17 16 16 15 16 15 15 15 15 15 15 15 15
19 18 17 17 17 17 17 17 17 17 17 16 17 17 17 17 17 16 17 17 17 17 17 17 17 17 17 17 17 17 16 16 16 15 16 16 15 15 15 15 15 15 15
18 18 18 18 18 17 16 16 16 16 16 16 16 16 16 16 16 16 16 16 16 17 16 17 17 16 16 16 16 16 16 16 15 15 15 16 15 15 15 15 14 15 15
18 18 17 17 17 16 16 16 15 15 15 15 16 16 15 16 16 16 15 15 16 16 16 16 16 16 16 15 15 15 15 15 15 16 15 16 15 15 15 15 14 14 15
17 17 18 17 16 15 16 15 15 15 15 15 15 15 16 15 14 15 16 16 16 16 16 16 16 16 16 15 15 15 14 14 14 15 16 15 15 15 15 15 15 15 14
17 17 17 16 16 15 15 15 15 15 15 15 15 15 15 15 16 15 15 15 15 15 15 15 15 15 15 14 14 15 14 14 15 15 16 15 15 15 15 15 15 15 14
14 14 15 15 15 15 15 15 15 15 15 15 15 15 15 15 15 15 15 15 15 15 14 14 15 15 14 14 15 14 14 14 15 16 15 15 15 15 15 15 14 15 14
11 12 12 13 13 13 13 14 14 15 15 15 15 15 15 15 14 14 14 15 15 15 15 15 15 15 14 14 15 15 14 14 15 15 15 15 15 15 15 14 14 14 14
11 11 11 12 12 12 12 13 13 13 14 14 14 14 15 15 14 14 14 14 14 14 14 14 14 14 15 14 14 13 14 14 14 14 15 14 15 15 15 15 14 14 14
10 11 11 11 12 12 12 12 12 13 13 13 13 13 14 14 14 14 14 15 14 13 13 14 14 14 14 14 14 14 13 14 14 13 14 14 15 15 15 15 15 14 14
10 10 11 11 11 11 11 12 12 12 12 13 13 13 13 13 13 13 13 13 12 13 13 13 13 12 13 13 13 13 14 13 13 13 13 13 14 15 15 15 15 14 14
9 10 10 10 11 11 11 11 11 11 11 12 12 13 13 13 13 13 13 13 13 14 12 12 13 13 13 13 13 12 13 14 13 13 13 13 14 14 15 15 15 14 15
9 9 9 10 10 10 11 11 11 11 10 11 11 11 11 12 12 13 13 13 14 13 14 11 10 13 14 14 14 14 15 12 14 14 13 13 13 14 14 14 15 15 14
7 8 8 8 9 9 10 10 10 10 10 10 9 10 10 10 11 11 11 12 12 12 12 12 13 11 13 14 14 12 13 13 13 14 13 13 13 14 14 14 14 15 15
5 6 6 7 7 8 7 8 7 6 6 6 8 8 8 8 9 9 9 9 10 10 10 9 9 11 13 12 12 13 13 12 12 16 14 14 13 13 14 15 14 14 14
4 5 6 5 5 5 3 3 1 1 1 2 2 1 3 5 6 6 7 7 7 7 8 8 8 8 9 10 10 11 11 12 12 13 14 14 13 13 13 14 14 13 14
3 4 5 4 2 1 3 1 1 0 -0 -0 -1 -1 -1 -1 0 2 2 3 4 3 4 4 4 6 8 10 10 11 12 13 14 14 13 13 12 15 15 14 14 15 13
1 1 2 1 0 -1 0 -1 -4 -4 -3 -3 -3 -3 -3 -3 -3 -2 -1 -0 1 1 1 2 3 4 5 7 8 10 11 13 15 15 14 12 12 15 15 15 13 15 14
-1 -1 0 0 -1 -0 -1 -4 -5 -5 -5 -5 -5 -5 -5 -4 -4 -4 -3 -2 -2 -1 0 1 1 2 4 5 7 8 10 11 11 12 13 13 12 14 14 17 15 13 14
-1 -1 0 1 -0 -0 -1 -4 -6 -7 -7 -6 -6 -6 -5 -5 -5 -4 -4 -3 -3 -2 -1 -0 1 1 1 3 5 6 7 9 11 11 11 12 12 12 12 15 14 13 13

GFSSE_850_temp_141.txt.gz
Temp
22 21 20 20 20 20 20 20 20 20 20 20 20 20 19 19 19 19 19 19 19 18 18 18 18 18 18 17 17 17 17 17 17 17 17 17 17 17 17 16 16 15 16
20 20 20 20 20 20 20 20 19 19 20 20 20 20 19 19 19 19 18 18 18 18 18 18 18 17 17 17 17 17 18 17 17 17 17 17 17 16 16 15 15 16 16
19 20 19 19 19 19 19 19 19 19 19 19 19 19 19 19 19 18 18 18 18 18 17 17 18 18 18 17 17 17 17 17 17 17 17 16 15 16 16 16 15 16 16
20 19 18 18 18 18 18 18 18 18 19 19 19 19 19 18 19 18 18 18 18 18 18 17 17 17 17 17 17 17 17 17 17 17 17 16 16 16 16 16 16 16 16
20 17 18 18 18 18 18 18 18 18 18 18 18 18 18 18 18 18 18 18 18 18 18 17 17 17 17 17 17 17 17 17 17 17 16 17 16 16 16 16 16 16 15
18 16 17 18 18 18 18 18 18 18 17 17 17 18 18 17 17 17 18 18 18 18 17 17 17 17 17 17 16 16 17 17 17 18 16 16 17 16 16 16 16 15 15
17 16 18 17 18 18 18 18 17 17 17 17 17 17 17 17 17 17 17 17 18 18 17 17 17 17 17 17 16 16 16 16 17 16 17 16 16 15 16 16 15 15 15
17 17 18 18 18 18 18 18 17 17 16 17 17 17 17 16 16 16 17 17 17 17 17 17 17 17 16 16 16 16 16 16 16 16 17 17 16 16 15 15 15 15 15
19 18 18 18 18 18 18 17 17 17 16 16 16 16 16 16 16 16 16 17 17 16 16 16 16 16 16 16 16 15 15 16 15 17 17 17 17 16 16 15 15 15 15
18 18 18 18 17 16 16 16 16 16 16 16 16 16 15 16 16 16 16 16 16 16 16 16 16 16 16 16 16 16 15 15 15 16 16 17 17 16 16 15 15 14 14
17 17 17 17 17 16 14 14 15 15 15 15 16 16 16 15 15 15 16 16 16 16 16 16 16 16 16 15 16 15 15 15 14 15 16 17 17 16 16 15 15 14 14
14 16 16 16 16 15 15 15 15 14 15 15 15 15 15 15 15 15 15 15 15 15 15 15 15 15 15 14 15 16 15 14 15 15 16 17 16 16 16 15 15 15 14
10 12 14 15 15 15 15 15 15 14 15 14 15 15 15 15 15 15 15 15 15 15 15 15 15 15 15 14 15 16 16 14 15 16 15 17 16 16 16 15 15 15 14
9 12 13 13 14 14 14 14 14 14 14 14 14 14 15 15 15 15 15 15 15 15 15 15 15 15 15 14 15 16 15 16 15 16 16 15 16 16 15 15 15 15 14
9 10 12 13 13 13 14 14 14 14 14 14 14 14 14 14 14 14 14 14 14 14 14 14 14 15 15 15 15 15 16 15 14 16 15 16 16 16 15 15 15 15 15
8 9 12 12 12 12 13 13 13 13 13 13 13 14 14 14 14 14 14 13 12 13 13 14 14 14 14 14 14 14 15 15 15 15 16 15 15 15 15 15 15 15 15
8 8 11 11 12 12 12 12 12 12 13 12 13 13 13 13 13 13 14 13 11 11 12 13 13 14 14 14 14 14 13 14 12 14 15 15 15 15 15 15 15 15 15
7 8 8 10 10 11 11 11 11 10 11 10 10 11 10 12 12 12 12 12 10 11 11 11 12 12 15 14 14 13 13 13 13 11 13 14 15 14 15 15 15 15 15
8 10 10 10 10 11 11 11 10 10 8 6 7 6 6 9 10 11 11 11 10 10 10 10 11 11 11 14 15 15 15 15 13 14 13 14 14 14 14 14 15 15 15
6 8 8 8 9 9 9 8 7 6 5 6 6 5 5 4 5 7 8 9 9 8 8 8 9 10 11 12 12 12 14 15 14 13 15 15 14 14 14 14 14 15 15
4 4 5 5 6 7 5 4 4 4 4 4 4 3 3 2 2 1 2 3 3 4 5 6 6 8 9 10 11 11 11 11 14 14 14 14 14 14 14 16 15 14 14
4 3 3 3 3 2 2 3 1 1 2 2 2 2 1 1 0 0 0 1 1 2 3 4 5 6 7 9 10 12 12 13 12 15 14 14 13 13 13 14 15 15 14
3 2 2 2 1 1 1 0 0 0 1 1 1 -0 -0 -1 -2 -2 -2 -2 -1 0 1 3 4 5 6 8 9 11 13 13 15 14 14 14 13 13 14 14 14 16 15
3 2 1 1 1 0 -1 -1 -2 -1 -1 -2 -2 -2 -3 -3 -3 -3 -3 -3 -2 -1 -1 0 2 3 4 6 8 9 10 12 12 14 15 14 14 13 13 14 14 14 15
3 2 1 0 0 -1 -1 -2 -3 -3 -3 -4 -4 -5 -5 -5 -5 -4 -4 -4 -3 -2 -2 -1 -1 2 3 4 6 7 9 10 11 11 11 13 13 13 13 14 14 14 14
2 1 1 0 0 -1 -2 -3 -4 -4 -5 -6 -6 -6 -6 -6 -5 -5 -5 -5 -4 -3 -2 -2 -1 -0 1 2 3 5 7 9 9 10 11 12 13 12 13 13 13 13 14

GFSSE_850_temp_144.txt.gz
Temp
21 21 21 21 20 20 20 20 20 20 20 20 20 20 20 19 19 19 19 19 19 18 18 18 18 18 18 17 17 17 18 18 18 17 17 17 17 17 17 16 15 16 16
20 20 20 20 20 20 20 19 19 19 19 19 19 19 19 19 19 19 18 18 18 18 18 18 17 17 17 17 17 17 18 18 17 17 17 17 17 16 17 16 16 16 16
20 19 19 19 19 19 19 19 19 19 19 19 19 19 19 19 19 19 18 18 18 18 18 17 17 17 17 17 17 17 17 17 17 17 17 17 17 16 17 16 16 16 16
18 19 19 19 19 18 18 18 18 18 18 18 18 18 18 18 18 18 18 18 17 18 18 18 17 17 17 17 17 17 17 17 17 17 16 16 17 16 16 16 16 16 16
18 19 18 18 18 18 18 18 18 18 18 18 18 18 18 18 18 18 18 18 17 17 17 17 17 17 17 16 17 17 17 17 17 16 17 15 16 16 16 16 16 16 16
19 18 17 18 18 18 18 18 18 18 18 17 17 18 17 17 17 17 17 17 17 17 17 17 17 17 17 17 16 16 17 17 17 16 16 15 14 17 16 16 16 16 15
17 17 17 17 17 17 17 17 17 17 17 17 17 17 17 17 16 16 16 17 17 17 17 17 16 17 17 16 17 16 16 17 17 17 15 16 15 17 16 16 16 15 15
17 16 17 17 18 18 18 17 18 17 17 17 16 17 17 16 16 16 16 16 17 17 16 17 17 16 16 16 16 16 17 17 17 17 16 16 16 16 17 16 16 15 15
17 17 17 18 18 18 18 17 17 17 16 16 16 16 16 17 16 16 16 16 16 16 16 16 16 16 16 16 16 16 16 17 17 17 16 15 17 16 17 16 16 15 15
17 18 18 18 17 17 17 16 14 15 16 16 16 16 16 16 16 15 15 16 16 16 16 16 16 16 16 16 16 16 16 16 17 17 16 15 15 17 16 16 16 16 15
17 18 18 17 17 16 16 15 15 15 15 16 16 16 16 15 15 15 15 15 15 15 15 15 15 15 15 16 16 16 16 16 17 17 17 15 15 15 17 16 16 16 15
15 16 16 16 16 16 16 15 15 15 15 15 16 16 16 15 15 15 15 15 15 15 15 15 15 16 15 15 16 16 16 16 17 17 17 15 16 15 15 16 16 15 15
11 14 15 15 15 15 15 15 15 15 15 15 15 15 15 15 16 16 15 15 15 14 15 15 15 15 15 15 15 16 16 16 17 17 16 15 14 14 15 16 16 15 15
10 13 13 14 14 14 14 14 14 14 15 14 15 15 15 15 15 15 15 15 15 14 14 14 14 14 14 14 15 15 15 15 16 17 16 15 15 15 15 16 16 16 15
9 11 13 13 14 14 14 14 14 14 14 14 14 14 14 15 15 15 15 15 14 12 13 14 14 14 14 14 13 14 14 14 15 15 16 15 15 14 15 15 15 15 15
8 10 11 12 13 13 13 13 13 13 13 13 12 13 13 13 14 14 14 14 14 13 12 12 13 14 15 15 14 14 13 13 14 14 14 15 15 15 14 15 15 15 15
8 9 11 11 12 12 12 12 12 11 12 11 10 11 10 10 12 12 12 13 13 13 13 12 12 11 13 15 13 13 13 14 13 14 15 15 14 13 13 15 15 15 15
8 9 10 11 11 11 11 11 11 10 10 8 8 9 7 6 9 10 11 11 11 12 12 12 12 11 11 12 13 15 15 13 13 14 15 15 15 14 11 14 15 15 15
9 10 10 11 11 11 11 11 10 10 9 9 8 7 5 5 5 5 7 8 9 10 10 10 11 11 10 11 11 12 14 15 15 14 14 15 14 15 13 15 15 15 15
9 10 10 10 10 10 10 10 10 9 9 8 7 6 4 3 3 3 2 3 5 6 7 7 6 8 9 10 11 11 12 13 16 15 15 14 13 15 15 14 14 15 15
7 8 8 8 8 8 9 8 8 7 7 6 5 3 3 3 2 1 1 1 1 2 3 3 5 6 8 9 9 10 11 11 12 14 15 15 15 14 14 14 13 14 15
5 5 6 6 6 7 6 5 4 4 4 2 1 2 2 1 0 -0 -1 -1 -1 -1 0 2 2 3 4 6 7 8 10 11 12 13 15 15 15 15 14 14 13 13 14
4 4 5 5 3 3 4 4 4 3 2 1 0 -1 -2 -1 -2 -2 -3 -3 -3 -3 -2 -1 0 2 3 4 6 7 10 11 12 13 14 14 15 15 14 13 14 14 14
4 3 3 2 2 1 2 2 1 -0 -1 -2 -3 -4 -4 -5 -5 -5 -5 -4 -4 -3 -3 -2 -1 0 2 3 4 6 7 8 9 11 13 13 13 13 13 14 14 14 14
4 3 2 2 1 1 2 1 2 1 -0 -2 -4 -5 -6 -6 -6 -6 -5 -5 -5 -5 -4 -3 -3 -2 -1 1 2 4 5 7 8 9 10 12 12 12 12 12 14 14 13
4 2 2 1 1 1 1 0 0 0 -2 -3 -5 -6 -6 -6 -6 -6 -6 -6 -6 -5 -5 -4 -3 -3 -2 -1 0 2 3 4 6 6 9 10 10 11 12 12 12 12 13

GFSSE_850_temp_147.txt.gz
Temp
18 19 20 20 20 20 20 20 20 20 20 20 20 20 20 19 19 19 18 18 19 19 19 18 18 18 18 17 17 17 17 17 17 17 17 16 16 16 16 16 16 16 16
17 18 19 20 20 20 20 19 19 19 19 19 19 19 19 19 19 19 18 18 18 18 18 18 18 18 17 17 17 17 17 17 17 17 16 16 16 16 16 15 16 16 16
18 18 19 19 19 19 19 19 19 19 19 19 19 19 19 19 19 18 18 18 17 17 18 18 18 18 18 17 17 17 17 16 17 16 16 16 16 16 16 15 15 16 16
19 18 19 19 19 19 19 19 19 19 19 19 19 19 18 18 18 18 18 18 17 17 17 17 17 17 17 17 17 17 17 16 17 16 15 15 16 16 16 16 15 15 15
18 18 18 18 18 18 18 18 18 18 18 18 18 18 18 18 17 17 17 17 17 17 17 16 17 17 17 17 17 17 17 16 16 16 14 15 15 15 16 16 15 15 15
18 18 18 18 18 18 18 18 17 17 17 17 17 17 17 17 17 17 16 16 17 17 17 16 16 17 17 17 17 17 16 16 16 16 15 15 16 16 15 16 16 16 15
18 18 18 17 17 17 18 18 17 17 17 17 17 17 17 17 17 16 16 16 16 16 16 16 16 17 17 16 17 17 17 16 16 16 16 15 16 17 16 15 16 16 15
18 18 17 17 18 18 18 18 17 17 16 16 16 16 16 16 16 16 16 16 16 16 16 16 16 16 17 16 16 16 17 16 16 16 16 16 16 16 16 15 16 16 16
17 17 17 17 17 17 18 17 17 17 16 16 16 16 16 16 16 16 15 15 16 16 16 16 17 17 17 17 16 16 16 16 16 16 15 15 16 15 16 15 16 16 15
17 17 17 17 17 17 17 17 16 17 16 16 15 15 16 16 15 15 15 15 16 15 15 15 15 16 16 16 16 17 17 16 16 16 16 15 15 15 14 16 16 16 15
17 17 16 16 16 16 16 16 15 15 15 16 16 16 16 16 15 15 15 15 15 15 15 15 15 15 15 15 16 16 16 16 16 16 16 16 15 15 15 14 15 16 15
16 16 16 15 15 15 15 15 15 15 15 15 15 16 15 15 15 16 15 15 15 15 15 15 15 15 15 14 15 15 16 16 16 16 16 16 15 16 15 15 15 16 16
14 14 15 14 14 15 15 15 15 15 15 15 15 16 15 15 15 15 16 16 15 15 14 14 14 14 14 14 14 15 15 16 16 16 16 15 15 15 15 15 14 15 16
13 13 13 14 14 14 14 14 14 14 14 14 14 15 15 15 15 15 15 15 15 15 15 14 13 13 13 14 14 14 14 14 15 14 14 15 15 15 15 15 14 15 15
12 12 13 13 13 13 13 13 13 13 13 12 12 13 13 13 14 14 14 14 14 14 14 14 14 14 14 14 14 14 14 13 15 14 14 13 13 15 14 15 14 14 15
10 11 12 13 12 12 13 13 12 12 12 11 11 12 11 11 12 13 13 13 13 13 13 13 12 13 13 14 14 14 15 14 14 15 14 13 12 13 14 15 14 14 14
10 11 11 12 12 12 12 11 11 11 11 10 10 10 8 8 10 10 10 11 12 12 12 12 12 11 11 12 14 13 13 13 13 12 13 13 13 13 14 15 16 15 13
10 10 11 11 10 11 11 11 11 10 10 9 8 8 6 5 5 5 7 9 9 10 11 11 11 11 10 10 11 12 12 13 13 14 13 14 13 14 13 15 15 14 14
10 10 10 11 11 11 11 11 10 10 10 9 8 7 7 4 4 4 3 4 6 7 8 8 8 7 9 10 10 10 10 11 13 13 13 13 13 13 13 14 15 15 16
9 9 10 10 10 10 10 10 10 9 9 8 7 7 5 5 4 3 2 2 1 2 3 5 5 6 5 6 8 10 10 11 12 12 13 14 13 12 13 14 14 14 15
9 9 9 9 10 10 9 9 9 8 7 6 6 5 5 4 3 2 1 1 -0 -0 -1 1 3 3 5 4 5 8 10 10 10 12 12 14 14 15 14 13 14 14 14
9 8 8 7 8 8 7 7 6 6 5 5 4 4 4 3 2 1 -1 -1 -2 -3 -3 -3 -2 0 2 3 3 4 6 10 11 12 12 14 14 15 15 15 13 14 13
7 7 7 6 6 6 6 6 6 6 5 5 4 3 2 1 -1 -2 -4 -5 -5 -4 -4 -4 -4 -3 -1 1 2 3 6 8 9 11 12 12 13 14 14 14 14 14 13
7 6 5 4 4 4 4 5 4 4 3 2 2 1 0 -2 -4 -5 -6 -5 -5 -5 -5 -5 -5 -4 -3 -2 -1 2 3 4 5 8 11 11 11 12 12 11 12 12 12
5 4 4 2 3 3 3 4 3 3 2 1 1 -0 -1 -4 -6 -6 -6 -6 -6 -6 -6 -5 -5 -4 -4 -3 -2 -1 1 4 5 5 6 10 10 10 11 11 11 11 12
4 4 3 2 2 2 2 3 3 2 2 1 1 -1 -2 -5 -6 -7 -7 -7 -6 -6 -6 -6 -5 -5 -4 -3 -3 -2 -1 1 3 4 5 6 7 9 9 11 11 12 11